GFSGL_250_rhum_000.txt.gz
RH
86 85 74 74 76 66 61 61 52 44 40 32 28 24 22 20 19 19 18 17 16 16 16 15 14 12 11 10 8 9 10 11 12 15 14 13 12 13 12 12 12 14 17
94 88 72 83 73 66 58 57 48 44 31 24 20 18 17 15 14 14 14 14 15 15 15 14 14 13 12 12 11 11 10 11 11 13 14 15 14 13 13 13 13 14 17
91 78 72 87 66 59 59 58 38 24 19 18 16 14 13 12 11 11 11 12 12 12 12 12 13 13 12 11 10 10 10 10 10 11 12 13 13 12 10 9 10 11 16
88 77 72 73 69 58 42 27 19 16 15 13 11 11 10 10 10 10 10 10 11 11 11 11 11 11 11 10 9 9 8 8 7 7 8 9 8 9 7 6 6 6 9
83 82 64 56 47 30 21 15 13 12 10 9 9 9 9 9 10 10 10 10 10 10 10 10 10 10 10 9 8 6 6 5 5 6 6 6 6 7 7 6 5 6 6
65 58 47 47 28 16 13 11 9 8 7 7 7 8 8 8 9 9 10 10 10 9 9 9 8 8 6 6 6 6 6 6 6 6 6 7 7 7 7 7 6 6 6
60 48 33 21 15 13 10 8 7 7 7 8 8 8 8 8 9 9 9 10 9 9 8 7 6 6 6 6 7 7 6 5 5 5 5 5 5 5 7 7 7 6 7
47 29 19 15 11 9 8 7 7 8 8 8 8 8 9 8 8 8 8 7 6 5 5 5 6 5 6 7 6 5 5 4 4 5 5 4 4 4 5 5 5 5 6
27 16 13 9 8 7 7 7 8 8 8 8 8 8 7 6 5 5 5 5 5 5 5 6 6 6 6 6 5 5 4 3 3 3 3 3 3 3 4 4 4 4 5
15 12 9 8 8 8 8 8 8 8 8 6 5 4 4 5 5 5 5 5 5 6 6 7 7 6 6 6 5 4 3 3 3 3 3 3 3 3 3 3 3 4 4
11 9 8 8 8 9 9 8 8 6 4 4 4 4 5 5 5 5 5 5 6 6 7 6 6 6 6 4 4 4 4 4 4 4 4 4 4 3 3 3 3 3 3
7 7 8 8 9 9 9 6 4 4 4 4 5 5 5 5 6 6 5 6 6 6 7 7 6 6 4 4 5 5 5 4 4 3 3 3 2 2 2 3 3 3 3
7 8 8 9 8 6 4 4 4 4 5 5 5 5 5 6 6 6 5 6 6 6 7 7 6 5 5 6 6 6 5 4 3 3 3 2 2 3 2 2 2 2 3
8 8 8 6 4 4 4 4 4 6 6 6 5 5 5 5 5 5 6 6 6 6 6 6 5 5 6 7 6 4 4 5 4 3 3 3 3 2 2 2 2 2 2
7 6 4 4 4 4 4 5 6 6 6 5 5 4 4 4 4 5 5 5 6 6 5 4 5 7 8 7 5 4 4 4 4 4 4 4 3 3 2 2 2 2 2
4 4 4 4 4 4 5 6 5 5 5 4 4 4 4 4 4 4 4 4 5 4 4 5 7 8 8 6 4 4 4 4 4 4 3 3 3 3 2 2 2 2 2
4 4 4 4 4 6 6 6 5 4 4 4 4 4 4 4 4 4 4 3 3 4 5 6 8 8 7 5 5 5 5 5 5 4 4 3 3 2 2 3 2 2 2
5 5 4 6 7 7 6 5 5 4 4 4 4 4 4 4 3 3 3 3 3 4 6 8 9 9 6 5 6 6 6 6 7 6 5 4 3 2 2 2 2 2 2
6 5 6 7 7 6 5 5 4 4 4 4 3 3 3 3 3 3 3 3 4 4 7 8 9 8 6 5 6 7 9 9 9 8 6 5 5 3 3 2 2 2 2
5 6 7 7 7 5 5 4 4 4 3 2 2 2 3 3 3 4 4 4 5 7 8 8 8 7 6 6 7 9 11 10 10 10 8 7 6 5 4 3 3 2 2
6 7 7 7 6 6 5 5 4 3 2 2 2 3 3 4 4 5 5 6 7 7 8 8 8 7 6 7 8 10 12 12 12 12 11 10 8 6 4 3 3 3 2
7 7 7 6 6 5 5 5 3 2 2 2 3 3 3 4 5 5 6 6 6 6 7 8 7 7 7 8 8 10 12 13 12 11 11 10 8 8 6 4 3 3 2
7 7 7 6 6 6 5 4 3 3 2 3 3 3 4 4 4 5 5 5 6 6 7 7 7 7 8 9 9 10 10 10 11 12 12 11 8 6 7 5 4 3 3
7 7 6 6 6 6 4 3 3 3 3 3 3 4 4 4 4 4 5 5 5 6 6 6 6 6 8 9 9 10 10 10 11 11 12 11 9 7 6 6 5 4 3
7 6 6 6 6 5 4 3 3 4 4 4 4 4 4 4 4 4 4 5 5 6 6 6 6 6 8 8 9 9 9 10 10 9 9 9 8 7 6 5 4 5 4
7 6 6 6 5 4 4 3 3 4 4 4 4 4 4 4 4 4 4 4 5 5 5 5 6 6 7 7 8 8 8 8 8 8 8 8 7 7 6 6 5 4 4

GFSGL_250_rhum_003.txt.gz
RH
93 96 100 100 96 88 82 74 72 60 48 32 25 20 15 12 11 10 9 8 9 9 9 10 10 10 11 11 11 12 12 13 14 19 16 14 14 14 12 10 10 8 8
100 100 99 95 93 81 68 61 50 40 27 20 14 12 10 9 8 7 6 6 7 7 8 8 9 9 10 10 11 12 12 12 12 15 16 15 12 11 11 11 11 10 9
100 94 98 100 90 85 60 49 31 21 16 13 10 8 7 6 6 6 6 6 7 7 8 8 8 9 10 10 10 11 12 12 12 13 14 14 14 13 12 10 9 9 7
100 100 95 89 83 60 45 21 17 14 11 8 6 6 6 7 7 7 7 7 7 8 8 8 8 9 9 9 9 10 10 10 10 11 12 12 12 13 14 13 11 9 8
100 87 78 67 47 32 22 16 14 11 8 6 6 7 8 8 8 8 8 8 8 8 8 8 8 8 8 9 9 9 9 8 8 8 9 9 10 10 10 10 9 8 8
68 68 53 31 18 15 13 12 9 7 6 7 8 8 8 7 7 8 8 8 8 8 8 8 8 8 8 9 9 8 8 7 6 6 6 6 6 6 6 6 6 6 6
60 47 21 12 12 12 10 7 7 7 8 8 8 8 8 7 6 5 5 6 6 6 7 7 7 7 7 6 6 6 5 5 5 5 5 6 6 6 6 7 6 5 5
46 15 12 13 11 8 7 7 7 7 8 8 7 6 5 4 4 4 4 4 4 4 5 5 5 5 5 5 5 5 5 5 6 7 6 6 6 5 6 6 6 6 5
12 12 12 10 8 7 7 7 7 7 6 4 4 4 4 4 4 4 4 4 4 4 5 5 5 4 5 5 5 6 6 6 6 6 5 5 5 5 4 5 5 5 4
12 12 9 7 7 7 7 7 5 4 4 4 4 4 4 5 5 5 5 4 5 5 5 5 5 5 6 6 6 6 6 6 5 5 4 4 4 4 4 4 4 4 4
11 9 7 7 7 7 5 4 4 4 4 4 4 4 5 6 6 5 4 5 5 5 6 6 6 6 6 6 6 6 6 4 4 3 4 4 4 3 3 3 3 3 3
8 7 7 7 6 4 4 4 4 4 4 4 5 6 5 5 5 5 4 5 5 5 5 6 6 6 6 7 7 6 4 4 4 4 4 4 4 4 4 4 4 4 4
6 7 7 5 4 4 4 4 4 4 5 6 6 5 4 4 4 5 5 5 5 6 6 6 6 7 7 6 6 4 5 6 6 5 4 3 3 3 3 3 3 3 3
7 7 5 4 4 4 5 5 5 6 6 5 4 4 4 4 4 4 4 5 5 5 6 6 6 7 6 6 5 6 7 7 6 5 4 4 4 3 3 3 3 3 2
6 5 4 4 5 5 4 5 6 6 5 4 4 4 3 4 4 4 4 4 5 5 6 6 6 6 5 5 6 7 7 6 5 5 5 4 4 4 3 3 3 2 2
4 5 5 5 6 5 5 5 5 5 4 4 4 4 4 4 4 4 4 4 5 5 5 5 4 5 6 7 8 7 6 5 5 5 5 4 4 4 4 3 3 3 2
5 5 5 6 5 5 6 5 4 4 4 4 4 4 4 4 3 4 4 4 4 4 4 4 4 5 7 8 8 8 5 5 5 5 5 5 5 4 3 3 3 2 2
5 5 6 5 6 6 6 5 4 4 4 4 4 3 2 3 3 3 3 3 3 3 4 4 4 6 8 9 9 7 5 6 6 7 7 7 5 4 3 3 3 3 2
6 6 6 6 6 6 6 5 5 4 4 4 3 2 2 2 3 3 3 4 4 4 4 4 5 8 9 9 9 7 6 7 7 9 9 9 6 4 4 3 3 2 3
6 6 6 6 7 6 6 5 4 4 4 3 2 2 2 3 3 4 4 5 5 5 5 5 8 9 10 10 8 7 8 9 9 11 10 10 8 7 5 4 3 2 2
6 6 7 7 6 6 6 5 5 5 3 3 3 3 3 3 3 4 5 6 6 7 7 8 8 9 9 10 9 8 10 10 10 12 12 12 10 8 6 5 5 3 3
6 7 7 7 7 6 6 6 5 4 3 3 3 3 3 3 4 4 5 6 6 6 6 7 7 8 9 9 9 8 10 11 10 12 14 14 12 9 8 5 5 5 3
7 7 7 7 7 6 6 6 4 4 3 3 4 4 4 4 4 4 4 5 5 6 6 6 7 8 8 8 8 9 10 10 10 11 12 12 11 10 8 7 5 5 4
7 7 7 6 6 7 6 5 4 4 4 3 3 4 4 4 4 4 4 4 5 5 6 6 7 7 7 7 7 8 8 9 9 9 10 10 8 7 7 7 6 4 4
7 7 6 6 7 6 5 5 5 4 4 4 3 3 4 4 4 4 4 4 4 5 5 6 6 7 6 6 6 7 7 8 8 8 9 8 8 7 6 6 6 6 5
7 7 7 7 5 5 6 6 6 5 4 4 3 3 4 4 4 5 5 5 4 5 5 5 6 6 6 6 6 6 6 7 7 7 8 8 7 7 6 6 5 5 5

GFSGL_250_rhum_006.txt.gz
RH
98 100 100 100 100 100 96 94 91 84 68 61 42 19 14 13 11 10 8 7 6 6 6 6 6 6 6 7 7 8 9 9 11 14 14 16 20 17 15 12 12 15 16
100 100 100 100 99 100 96 87 75 57 42 30 12 13 13 10 8 6 6 6 6 7 7 7 7 6 6 6 7 7 8 8 9 11 12 14 15 16 14 13 12 11 11
100 100 100 100 96 78 70 57 45 32 22 11 12 11 8 6 6 6 6 7 8 8 7 7 7 7 7 7 7 7 7 8 8 10 11 12 13 13 14 14 11 10 10
100 100 96 82 77 58 40 35 28 17 11 11 9 7 6 6 6 6 7 7 7 7 7 7 7 7 7 8 8 8 8 8 9 9 10 11 11 12 13 14 13 11 9
91 84 73 55 42 37 27 16 12 11 10 7 6 6 6 7 7 7 7 7 6 5 5 5 6 7 7 8 8 8 8 9 9 9 10 11 11 11 12 13 13 12 11
78 63 46 32 31 18 12 11 10 8 6 6 6 6 6 5 5 4 4 4 3 3 3 3 4 4 6 7 8 9 9 9 9 9 9 10 11 10 11 11 12 12 13
45 32 26 18 14 12 11 8 6 6 6 6 5 4 3 3 4 4 4 3 3 3 4 4 4 4 4 5 6 7 7 8 8 8 9 10 10 10 11 11 11 11 11
24 18 13 13 12 9 7 6 6 6 5 3 3 3 4 4 4 4 4 3 3 4 5 5 5 5 5 5 4 5 5 5 6 7 7 7 8 8 8 8 8 9 8
14 13 12 10 7 6 6 6 5 4 3 3 4 4 4 4 4 4 4 4 5 5 6 6 5 5 4 5 5 5 5 6 6 5 5 5 5 6 6 6 6 6 6
12 11 8 6 6 6 6 4 4 4 4 4 4 4 4 5 5 5 5 5 5 6 6 6 5 5 6 6 6 6 6 6 7 7 7 6 6 6 6 6 6 6 6
9 6 6 5 6 5 4 4 4 4 4 4 4 5 6 6 6 6 5 4 5 5 5 5 5 5 6 6 6 6 6 6 6 6 6 6 5 5 5 5 5 5 4
6 6 6 5 4 4 4 4 4 5 5 4 5 5 5 5 5 4 4 4 4 5 5 5 5 5 5 6 6 6 6 7 7 7 6 5 4 4 4 4 4 4 3
6 5 4 4 4 4 4 4 5 5 4 5 5 5 4 4 4 4 4 4 4 4 5 5 5 6 6 6 7 7 8 8 6 5 5 5 5 5 4 4 4 4 4
5 4 4 4 4 4 5 5 6 5 5 6 5 4 4 4 4 4 4 4 4 4 4 5 5 6 6 7 8 8 8 6 6 7 7 6 5 4 4 4 3 3 3
4 4 5 5 5 5 5 6 5 6 6 5 5 4 4 4 4 4 4 4 4 4 5 5 6 6 7 8 8 7 6 6 7 8 7 5 5 5 4 4 4 3 3
4 5 5 5 5 6 6 5 6 6 6 5 4 4 4 3 3 2 3 3 4 4 4 5 6 6 7 6 6 6 7 8 8 8 6 6 6 5 5 4 4 3 3
5 5 5 6 6 6 5 6 5 5 5 5 5 4 3 2 2 2 2 3 3 3 4 4 4 5 5 6 6 7 9 9 9 7 6 6 6 6 4 4 4 3 3
6 6 6 6 6 6 6 6 5 5 4 5 4 3 3 2 2 2 3 3 3 3 3 4 4 4 5 6 7 9 9 9 9 7 7 7 8 6 5 4 4 4 3
6 6 6 6 6 6 6 6 6 5 5 5 3 3 3 3 3 3 3 4 4 5 5 4 5 5 5 6 8 10 10 10 9 8 8 8 9 8 7 5 4 4 4
6 6 6 6 6 6 6 6 5 5 5 3 3 3 3 4 3 4 4 4 5 6 6 6 6 6 6 8 10 11 11 11 9 9 10 9 9 8 7 6 4 4 3
7 6 7 7 6 6 6 6 6 5 4 3 4 3 3 4 4 4 4 4 5 6 7 8 8 8 9 10 10 11 11 11 10 10 10 9 9 9 9 7 6 5 4
7 7 7 7 7 7 7 6 5 4 4 4 4 4 4 4 4 4 4 4 5 5 6 7 8 8 9 9 10 10 11 10 10 10 11 11 10 10 9 8 7 5 4
7 7 7 7 7 7 7 5 4 5 5 5 5 4 4 4 4 4 4 4 4 4 5 6 7 7 8 8 9 10 10 9 10 10 10 10 10 10 8 7 7 6 4
7 7 7 8 7 6 5 5 6 6 6 5 5 5 4 4 4 4 5 5 4 4 4 5 6 6 7 7 8 9 8 8 8 9 9 9 9 9 8 7 6 5 5
7 8 8 7 5 5 6 6 6 6 6 6 5 5 4 4 4 4 4 4 5 5 5 5 5 6 6 7 7 8 8 8 8 8 9 9 8 8 8 7 6 6 5
8 8 6 5 6 6 6 6 5 5 6 6 5 5 4 4 4 4 4 4 4 5 5 5 5 5 5 6 6 6 6 6 6 7 7 7 7 7 7 6 6 5 5

GFSGL_250_rhum_009.txt.gz
RH
82 72 87 100 100 100 86 81 78 74 63 55 51 33 24 16 13 11 10 9 8 7 6 6 6 6 6 6 6 7 6 6 6 6 6 7 8 9 10 11 13 13 14
95 100 100 100 100 89 82 70 61 54 42 28 19 16 12 12 10 8 7 6 6 6 6 6 7 7 7 7 7 7 7 7 7 7 6 6 6 7 8 9 12 12 11
98 96 100 90 75 54 54 49 35 26 17 14 13 12 11 8 6 6 5 6 6 6 6 6 6 7 7 8 8 7 8 7 7 7 7 6 6 6 7 8 9 11 10
100 97 90 57 48 47 45 30 19 16 14 13 12 8 6 6 6 6 5 5 4 3 3 3 4 4 6 7 7 8 7 7 7 7 7 7 6 6 6 7 8 8 9
75 55 46 46 43 34 29 17 14 13 12 9 6 6 6 6 6 4 3 3 3 3 3 3 3 4 4 4 4 5 6 7 7 8 8 8 7 7 7 7 8 8 8
48 47 46 36 26 20 16 14 12 10 7 6 6 6 5 4 4 4 3 3 3 3 3 3 3 4 4 4 4 4 4 5 7 8 8 8 8 8 7 7 8 8 8
38 32 25 19 16 14 12 10 7 6 6 5 5 4 3 3 4 4 4 4 4 3 3 3 4 4 4 4 4 4 4 4 5 6 8 8 9 8 9 9 9 9 9
24 20 17 16 12 10 7 5 6 5 4 3 3 3 4 4 5 4 4 4 4 4 4 5 6 6 5 5 4 4 4 4 5 6 8 8 9 9 9 9 10 9 9
16 15 12 10 7 5 5 5 4 4 4 4 4 4 4 4 4 4 4 4 4 5 5 6 6 5 5 5 5 5 5 5 5 5 5 6 7 8 8 10 10 10 9
11 11 8 6 5 5 5 4 4 4 4 4 4 4 5 4 4 4 4 4 3 4 4 5 5 5 6 6 6 6 5 5 5 5 5 6 6 6 6 7 7 7 8
9 6 5 5 5 4 4 4 4 5 4 4 5 5 4 5 4 4 4 3 4 4 4 4 4 5 6 6 6 6 7 6 6 6 6 6 6 6 6 6 6 6 6
6 5 5 4 4 4 4 5 5 5 5 5 5 5 4 5 4 4 3 3 3 3 4 4 4 5 6 6 6 7 7 7 8 8 8 7 7 6 6 6 6 6 6
6 5 4 4 4 4 5 5 6 5 5 5 5 5 4 4 4 4 4 4 4 4 4 4 4 5 6 6 7 7 8 8 8 8 8 8 7 6 6 5 4 4 4
5 4 4 4 5 5 5 5 6 5 5 6 5 5 4 4 4 4 4 4 4 4 4 4 5 5 6 7 8 8 9 9 9 8 7 6 5 5 6 6 6 5 5
4 4 4 5 5 6 6 6 5 6 6 6 5 5 4 4 4 3 3 2 3 3 4 4 5 5 6 7 8 9 9 9 8 7 6 7 8 8 6 5 5 4 4
4 5 5 6 6 6 6 6 6 6 5 5 5 5 5 4 3 3 2 2 2 3 3 4 4 5 6 7 8 9 9 8 7 7 8 9 8 6 5 6 5 4 4
5 5 6 6 6 6 6 6 6 6 6 5 5 5 4 3 3 3 3 3 3 3 3 3 4 4 4 5 6 7 7 7 7 9 10 10 7 6 6 5 6 5 5
5 6 7 7 7 6 6 6 6 6 6 6 5 4 3 3 3 3 3 3 4 4 4 4 4 4 4 5 5 6 6 7 8 10 10 9 8 7 6 7 6 5 5
6 6 7 7 7 6 6 6 6 6 6 5 4 4 4 4 4 4 4 4 4 5 5 5 5 5 5 5 6 6 7 8 10 10 10 9 8 8 8 8 7 6 6
6 7 7 7 7 6 6 7 6 6 4 4 5 5 4 4 4 4 4 4 5 5 6 6 7 7 6 6 6 7 7 9 11 10 10 9 8 9 8 9 8 7 5
7 7 6 7 7 7 7 7 6 4 4 5 6 6 5 5 4 4 4 5 5 5 6 6 7 8 8 8 8 8 9 11 11 10 10 9 8 8 8 8 8 8 6
7 7 7 7 7 8 7 6 5 4 5 6 6 6 5 5 5 4 4 5 5 5 5 5 6 7 8 8 9 10 10 10 11 10 10 9 8 7 7 7 8 9 8
7 7 7 7 8 7 5 5 5 5 5 5 5 6 6 5 5 4 4 4 5 5 5 5 5 5 6 7 7 8 9 9 9 9 9 8 7 7 7 7 7 8 7
7 7 8 8 6 5 5 5 5 5 5 5 5 6 6 5 5 4 4 4 5 5 5 5 5 5 5 5 6 7 8 8 8 8 8 7 7 7 7 7 7 7 6
7 8 7 5 5 5 5 6 6 5 5 5 5 5 5 4 4 4 4 4 4 5 5 5 5 5 5 5 5 6 6 7 7 7 7 7 6 6 6 6 6 6 6
8 6 5 5 5 4 5 6 6 5 5 5 5 4 4 4 4 4 4 4 4 4 5 4 5 5 5 5 5 5 5 6 6 6 6 6 5 6 6 6 5 6 6

GFSGL_250_rhum_012.txt.gz
RH
100 96 84 72 71 67 55 50 50 55 58 40 31 25 19 14 13 12 11 10 8 6 6 5 5 5 5 5 5 5 5 5 6 6 6 6 5 5 5 6 6 8 11
96 85 72 59 52 46 46 48 47 47 36 23 21 18 15 13 12 10 8 6 5 5 5 5 5 4 4 3 4 4 4 5 6 7 6 6 6 6 5 4 4 5 9
70 70 62 53 48 45 50 41 31 22 18 17 17 14 11 9 7 6 5 5 5 4 4 3 3 3 3 3 3 3 3 4 5 7 7 7 7 6 6 6 5 4 6
65 59 55 51 44 42 28 21 17 14 13 12 11 8 6 5 5 5 4 3 3 3 3 3 4 4 3 3 3 3 3 3 3 5 7 7 6 6 6 6 6 5 5
58 50 43 31 29 29 20 15 12 11 10 8 6 5 5 5 4 4 3 3 3 3 3 4 4 4 4 4 3 3 3 3 3 3 4 5 6 6 6 6 6 6 6
63 53 39 23 16 13 12 11 10 8 6 5 5 4 3 3 4 4 4 3 3 4 4 4 4 4 3 3 3 3 3 3 3 3 3 4 4 6 7 7 7 7 7
63 45 29 18 11 9 9 7 5 5 4 4 3 3 4 4 4 4 4 4 4 4 4 4 4 5 5 5 4 3 4 4 4 4 4 4 4 5 7 8 8 8 8
40 25 14 10 9 9 6 4 4 4 3 3 4 4 4 4 4 5 5 4 4 3 4 4 5 4 5 5 5 5 5 5 5 5 5 4 4 4 6 7 8 9 8
20 14 10 9 7 6 5 4 4 4 4 4 4 4 4 5 4 4 4 4 4 4 4 4 4 4 4 5 5 5 5 5 5 5 5 5 5 5 6 8 8 9 9
12 10 9 8 5 5 5 4 4 4 5 4 4 4 5 5 4 4 4 4 4 4 4 4 3 4 4 5 5 5 5 6 5 5 5 5 5 5 5 5 7 9 9
9 8 8 6 4 4 4 4 4 5 5 5 5 5 4 4 4 4 4 4 3 3 3 3 3 3 4 5 5 5 5 5 6 6 6 6 5 5 6 6 6 6 6
9 8 6 6 5 4 4 5 5 5 5 5 5 5 5 4 4 4 3 3 4 4 3 4 4 4 4 4 5 5 6 6 6 6 6 6 6 6 6 6 7 6 5
8 6 5 5 4 5 5 5 6 5 6 6 6 6 5 5 4 4 4 4 4 3 2 3 4 4 5 5 6 6 7 7 7 7 7 7 8 8 8 7 7 7 7
6 6 5 4 5 5 6 6 6 6 6 6 6 6 5 4 4 4 4 3 3 2 2 3 3 4 5 6 6 7 8 8 8 8 8 8 9 9 8 8 7 6 6
6 5 5 4 5 5 6 6 6 6 6 6 6 6 5 5 4 3 3 3 3 3 2 3 3 4 5 6 7 8 9 9 10 10 10 10 10 9 6 6 6 6 6
5 4 4 5 6 6 6 6 6 6 6 5 5 5 5 4 3 3 3 3 3 3 3 3 3 4 5 6 8 9 9 10 11 11 11 9 7 7 8 9 9 7 6
5 5 5 6 6 6 6 6 6 6 7 6 6 5 4 4 4 4 3 3 4 3 3 3 4 4 4 5 6 8 9 10 10 10 8 7 8 10 10 9 8 6 6
5 5 5 6 6 6 6 6 6 7 7 7 5 4 5 6 5 5 4 4 4 4 4 4 5 5 4 4 5 7 8 9 9 9 8 9 10 11 10 8 6 6 6
5 5 6 6 6 7 7 7 7 7 6 5 5 6 6 6 6 5 5 4 4 4 5 5 6 6 6 5 5 6 7 8 8 8 8 9 11 11 10 7 6 6 8
6 6 6 6 7 7 7 7 7 5 5 5 5 6 6 6 6 6 5 4 4 5 5 6 6 7 7 8 7 6 7 7 8 8 8 10 11 11 10 8 7 7 8
6 6 6 7 7 7 8 7 5 5 5 5 5 6 6 6 6 6 5 5 4 4 5 5 6 7 8 8 8 8 8 8 8 8 9 10 11 11 10 8 8 8 8
6 7 7 7 7 7 6 5 5 5 5 6 6 6 6 6 6 6 6 5 5 4 5 5 6 6 6 7 8 9 9 9 9 9 10 11 11 11 10 8 7 8 8
7 7 6 7 6 5 5 5 5 6 6 6 6 6 5 6 6 5 5 5 5 4 4 5 6 6 6 6 6 7 8 8 9 9 10 10 10 10 9 8 7 8 8
7 6 6 6 5 5 5 5 6 8 7 7 6 5 5 5 5 5 4 4 5 4 4 4 5 5 6 6 5 5 6 6 7 7 8 8 8 8 8 8 7 7 7
7 6 5 5 5 5 5 6 6 7 8 6 5 4 4 5 5 4 4 4 4 4 4 4 4 5 5 6 6 5 5 5 6 6 7 7 7 7 7 7 6 6 6
6 5 5 5 5 6 6 6 6 7 7 6 5 4 4 4 5 5 4 4 4 4 4 4 4 4 5 5 5 5 5 5 5 5 6 6 6 6 6 5 5 5 5

GFSGL_250_rhum_015.txt.gz
RH
58 68 78 84 81 80 82 69 63 55 54 53 36 18 11 9 9 9 8 6 4 4 4 4 4 4 4 3 3 3 3 3 4 5 5 5 5 5 4 5 6 7 7
83 78 81 96 94 75 65 58 54 45 31 24 15 9 9 8 8 6 4 4 4 4 3 3 3 3 3 2 2 2 2 2 2 3 3 4 5 5 5 5 4 5 5
98 100 92 74 59 50 43 36 28 17 16 11 9 9 8 6 5 5 4 3 3 3 3 3 3 3 3 3 3 3 3 3 3 2 3 2 3 4 6 6 6 5 4
89 83 64 55 44 45 42 28 15 10 9 8 8 5 4 4 4 4 3 3 3 3 3 3 3 3 3 3 3 4 4 4 3 3 3 3 2 3 4 5 6 6 6
68 61 56 51 46 38 24 16 11 9 8 6 4 4 4 3 4 4 4 4 4 4 4 4 4 3 3 4 4 4 3 3 3 3 3 3 3 3 3 5 6 6 7
60 60 55 54 43 24 12 9 9 7 5 4 4 4 3 4 4 4 4 4 4 4 4 4 4 4 4 3 4 4 4 4 4 3 3 3 3 3 3 4 6 8 8
74 65 56 43 25 11 9 8 7 5 4 4 3 4 4 5 4 4 4 4 4 4 4 4 4 4 4 4 4 4 4 5 5 4 3 3 3 3 3 3 4 6 8
62 53 42 26 10 9 8 6 5 4 4 4 4 4 5 4 4 4 4 4 4 4 4 4 4 3 3 4 4 4 4 4 5 5 5 4 4 4 4 4 4 4 6
51 38 27 12 9 9 6 5 5 4 4 4 4 4 5 5 5 5 5 5 4 4 3 3 3 3 3 3 3 4 4 4 5 5 6 6 5 5 5 4 4 4 4
43 35 14 9 8 6 5 4 4 4 4 4 5 5 5 5 5 5 5 4 4 3 3 3 3 3 3 4 3 4 4 4 5 6 6 6 6 6 5 5 4 4 4
34 18 9 8 7 5 4 4 4 4 4 5 5 5 5 5 5 5 4 4 4 4 4 4 4 3 4 4 4 4 4 5 5 6 6 6 6 6 5 6 6 5 6
20 10 8 7 5 4 4 4 4 5 5 6 6 5 5 5 5 5 4 4 4 3 3 3 3 2 3 4 4 4 5 5 6 6 6 6 6 6 6 6 6 6 6
11 8 8 6 5 4 4 5 5 5 6 6 6 6 6 5 5 5 4 3 3 3 3 3 2 2 3 4 5 5 6 6 6 6 6 7 7 7 7 7 7 6 6
9 8 7 5 5 5 5 5 5 6 6 6 6 6 6 6 5 4 3 3 3 3 3 3 3 3 3 4 5 6 6 6 7 7 7 7 7 8 8 8 8 8 8
8 7 6 5 5 5 6 6 6 6 6 6 6 7 7 5 4 4 4 4 4 4 4 4 3 3 3 4 5 6 7 7 8 8 8 8 9 9 9 9 8 8 8
8 6 5 5 5 5 6 6 7 7 6 7 6 6 4 4 4 5 5 5 5 4 4 4 4 3 4 4 5 6 8 8 8 9 10 10 10 11 10 10 8 6 6
6 6 5 5 6 6 6 7 7 6 7 7 5 4 4 4 5 5 6 6 5 4 4 4 4 5 4 4 5 6 8 9 10 11 11 11 11 10 8 7 7 8 8
6 5 6 5 6 7 8 7 7 7 6 5 5 5 5 5 5 5 6 6 6 5 4 5 5 6 6 5 5 5 7 8 10 11 11 11 10 9 8 8 10 10 10
6 5 5 6 7 8 7 7 7 6 5 5 6 5 6 6 6 6 6 7 6 6 5 4 5 6 7 7 6 6 6 8 9 10 10 10 10 9 9 10 11 11 10
6 5 6 6 8 8 7 7 6 6 5 5 5 6 6 6 6 6 6 6 6 6 6 5 5 5 6 8 8 8 7 7 7 8 9 8 8 8 8 10 11 11 10
6 5 6 8 8 7 6 5 5 6 6 5 6 6 6 6 5 5 5 5 6 5 6 5 5 5 6 6 7 8 9 9 8 8 8 8 8 8 8 10 11 11 10
5 6 7 8 7 7 5 5 5 6 7 7 7 6 6 6 5 5 5 5 5 5 5 5 5 5 5 6 6 6 8 9 10 9 9 8 9 9 9 10 11 10 10
5 6 7 7 6 6 5 5 6 7 7 8 7 6 6 5 5 5 5 5 4 4 4 5 5 5 5 5 6 6 6 6 7 9 9 10 10 10 10 10 10 10 9
6 7 7 6 6 5 5 6 7 7 7 7 6 6 6 5 5 5 5 5 5 4 4 4 4 4 4 4 5 5 6 5 5 6 6 8 8 9 9 9 8 8 8
6 7 7 6 5 5 7 7 7 7 6 6 5 6 5 5 5 4 4 4 4 4 4 4 4 4 4 4 4 5 5 5 5 5 5 5 6 6 7 7 7 7 7
6 6 5 4 5 6 7 7 7 6 6 6 6 5 4 4 4 4 4 4 4 4 4 4 4 3 3 3 4 4 4 4 5 5 5 5 5 5 6 6 6 6 6

GFSGL_250_rhum_021.txt.gz
RH
47 51 49 48 54 64 62 51 47 45 42 45 46 39 29 22 14 9 6 6 6 4 4 3 3 3 3 3 3 3 3 2 3 3 2 2 2 3 3 3 4 5 7
49 48 54 64 64 53 53 53 52 52 51 43 34 21 17 10 7 6 6 5 4 3 3 3 3 3 3 3 3 3 3 3 3 3 3 3 2 2 2 3 3 4 4
67 66 68 65 64 65 68 61 50 44 34 25 19 16 9 7 6 5 4 3 3 3 3 3 3 3 4 4 3 3 3 3 3 3 3 3 3 2 2 3 3 3 4
68 69 68 64 64 63 54 52 41 27 19 16 12 8 7 6 5 4 4 4 3 3 4 4 4 3 3 3 3 3 3 3 3 3 3 3 3 3 3 3 3 3 3
67 64 62 70 71 67 55 42 25 18 13 10 8 7 6 5 4 4 4 4 4 4 4 4 4 3 3 3 4 3 3 3 3 3 3 3 3 3 3 3 4 4 4
68 73 84 78 68 55 41 28 20 14 11 9 8 6 5 4 4 4 4 4 4 4 4 4 3 3 3 3 3 3 3 3 3 2 3 3 4 3 3 4 4 4 4
76 80 85 69 62 46 33 22 17 10 9 8 7 5 4 4 5 5 4 5 5 5 5 4 4 3 3 3 2 2 2 3 3 2 3 3 3 3 3 4 4 4 4
80 84 68 62 48 37 24 18 10 9 8 7 5 5 5 5 5 6 5 5 5 4 4 4 4 3 3 3 3 3 3 3 3 2 3 3 3 4 4 4 4 4 4
91 72 59 53 41 28 21 12 10 9 7 6 5 5 5 5 6 6 5 4 4 4 4 4 3 2 2 2 2 2 3 3 3 3 3 3 3 3 4 4 4 5 4
70 60 51 37 29 20 13 10 9 7 6 5 5 5 5 6 6 6 5 5 5 4 3 3 3 3 3 2 2 2 2 2 3 3 3 3 4 4 4 4 5 5 5
63 48 31 30 22 14 10 9 8 7 6 6 5 5 6 7 6 6 6 5 4 3 3 3 4 4 3 3 3 2 2 2 3 4 4 4 4 4 4 5 6 6 6
57 40 32 22 15 10 9 8 7 6 6 5 5 6 7 6 6 5 4 4 4 3 3 4 4 4 4 3 3 3 2 3 4 4 4 4 5 5 6 6 6 6 7
48 38 22 16 11 9 8 7 6 6 5 5 6 7 7 6 4 4 4 4 4 4 4 4 4 5 4 3 3 3 3 4 4 5 5 5 6 6 6 6 6 6 7
38 22 16 11 9 8 7 6 6 5 5 5 7 7 6 4 4 4 4 4 5 5 5 4 5 5 4 4 4 3 3 4 5 6 6 6 6 7 7 6 6 7 7
25 16 12 10 9 6 6 6 5 5 5 6 7 6 5 4 5 5 5 5 6 5 5 5 5 6 5 4 4 4 4 4 5 7 7 7 7 7 7 7 7 7 7
16 13 10 8 7 5 5 5 5 5 5 7 7 6 5 5 6 6 7 6 6 6 5 5 6 6 6 5 5 4 4 4 5 6 8 9 9 8 9 9 8 8 8
13 10 8 6 6 5 5 4 4 5 7 7 7 5 5 6 7 7 7 6 6 5 5 5 5 6 6 5 5 5 5 5 5 6 8 9 10 10 10 10 11 11 10
11 8 6 5 5 5 4 5 5 6 7 7 6 5 7 7 6 6 6 6 6 5 4 4 5 5 5 6 6 6 6 6 5 6 7 9 11 12 12 12 12 12 12
8 6 5 5 4 4 5 5 5 6 7 6 5 6 7 7 6 6 6 6 5 5 5 5 5 5 5 5 6 5 6 7 7 7 6 6 9 11 11 12 12 12 12
5 5 5 4 5 5 6 6 6 7 6 5 5 7 7 7 7 7 7 6 5 5 5 5 5 5 5 5 6 6 6 6 8 8 8 8 6 8 9 10 10 11 11
5 5 4 5 6 6 6 6 7 7 6 5 7 7 7 8 8 8 7 6 5 4 4 5 5 5 5 5 5 5 6 6 6 7 8 8 8 8 7 8 8 8 8
5 4 5 6 6 6 6 6 6 6 5 6 8 7 8 8 8 7 6 6 5 4 4 4 4 5 5 5 5 5 5 5 5 5 7 7 8 8 9 9 8 7 7
4 5 6 6 7 6 6 6 6 6 6 7 8 8 8 8 6 6 5 4 4 4 4 4 4 4 5 5 5 5 5 5 5 5 5 6 7 7 8 8 9 9 8
5 6 6 6 7 6 6 6 6 5 6 8 8 8 8 6 4 4 4 4 4 4 4 4 4 4 4 5 5 5 4 4 5 5 5 5 5 6 6 6 6 8 8
6 7 6 6 6 6 6 5 5 6 8 8 8 8 7 5 4 4 4 4 4 4 4 4 4 4 4 4 4 4 4 4 4 4 4 4 5 5 5 6 6 5 5
7 7 6 6 5 5 5 5 6 7 9 9 8 7 5 4 4 4 4 4 4 4 4 4 4 4 4 4 4 4 4 4 4 4 4 4 4 4 5 5 5 5 5

GFSGL_250_rhum_024.txt.gz
RH
57 61 67 68 63 56 49 50 56 60 50 43 36 33 27 20 15 11 9 7 6 5 5 4 4 3 3 3 3 3 2 2 3 3 3 2 2 2 2 3 3 3 3
55 57 54 50 50 48 55 63 61 54 49 43 35 25 19 14 11 9 7 6 6 5 4 3 3 3 3 3 3 3 3 2 2 3 3 3 3 2 3 2 3 3 2
52 48 47 54 54 61 70 66 64 60 45 36 25 18 14 10 8 7 6 5 4 4 3 3 3 3 3 3 3 3 3 3 3 3 3 3 3 2 3 3 2 3 3
47 52 59 59 67 76 79 77 61 58 43 31 20 14 10 9 7 6 5 4 4 4 4 4 4 4 4 3 3 3 3 3 3 3 3 3 3 2 3 3 3 3 3
58 63 64 78 82 86 85 88 71 52 38 27 15 11 10 8 6 5 5 4 4 4 4 4 4 4 4 4 3 3 3 2 2 2 2 2 3 3 3 3 3 3 3
76 76 79 95 90 94 87 82 59 36 23 16 11 10 8 7 6 5 5 4 4 5 6 4 4 4 4 3 3 3 3 3 2 2 2 2 3 3 3 3 3 4 4
83 86 96 94 100 90 79 60 37 20 16 11 10 8 7 6 5 5 4 4 5 5 5 4 4 4 4 3 3 2 2 2 2 3 3 3 2 2 3 3 3 4 4
94 98 98 100 96 85 67 36 20 16 12 10 9 7 6 6 5 5 5 5 5 5 4 4 4 3 3 3 3 3 2 2 2 2 2 3 3 2 3 3 3 4 4
100 100 100 97 88 68 44 23 17 12 11 10 7 6 6 5 5 5 6 6 4 4 4 3 3 3 3 3 4 4 3 3 2 2 2 3 3 3 3 3 3 4 4
100 96 100 94 66 43 23 16 13 11 11 8 6 6 5 5 5 6 6 6 4 4 3 3 3 4 4 4 4 4 3 3 2 2 2 2 3 3 3 3 4 4 4
99 96 85 76 51 25 17 14 11 11 9 7 6 6 5 5 6 7 6 5 4 4 4 3 4 4 4 4 5 4 3 3 2 2 2 3 3 4 4 4 4 4 5
94 74 63 54 31 22 14 10 10 9 7 6 5 5 5 5 7 7 6 4 4 5 4 4 4 4 4 5 5 4 4 3 3 3 3 4 4 4 4 5 5 5 6
69 44 36 27 21 16 10 10 10 7 6 5 5 5 5 6 7 6 5 5 5 6 6 5 4 4 5 5 5 4 4 3 3 3 4 5 5 5 5 5 6 6 6
52 33 22 20 15 11 10 9 7 6 5 4 5 5 6 7 7 5 5 6 6 6 6 6 5 4 5 5 5 4 4 4 3 3 4 5 6 6 6 6 7 7 7
34 24 17 15 12 10 10 7 6 5 5 5 6 6 7 7 6 5 6 6 5 6 5 5 4 4 5 5 5 5 4 4 4 4 5 6 7 7 7 7 7 7 8
23 17 16 13 10 10 9 6 6 5 6 6 6 6 7 6 5 5 6 6 6 6 5 5 4 4 4 5 5 5 5 5 4 4 5 6 8 8 8 7 7 8 8
17 16 13 10 11 10 6 6 5 6 6 6 6 7 6 5 5 6 6 6 6 6 6 5 4 5 5 5 5 5 5 5 5 5 4 6 8 9 9 8 8 8 8
16 13 11 11 10 6 6 5 5 6 7 6 7 6 6 5 7 7 7 7 7 7 6 6 4 5 4 5 5 5 5 5 6 6 5 5 7 9 10 10 10 10 11
13 10 10 10 7 6 5 5 6 6 7 7 7 7 6 6 8 8 8 8 8 7 6 5 5 4 4 4 5 5 5 6 6 6 7 6 6 7 9 10 12 12 12
10 10 10 8 6 6 4 6 6 6 7 7 6 6 6 7 8 8 8 8 7 6 5 4 4 5 4 4 5 5 5 5 6 6 6 7 8 7 6 8 11 12 13
10 10 8 6 6 5 5 6 6 6 6 6 6 6 6 8 8 8 8 6 5 5 5 5 4 4 4 4 4 5 5 5 5 6 6 6 8 8 8 7 7 9 10
9 9 6 5 5 4 6 6 6 6 6 6 6 6 7 9 8 8 7 5 5 5 5 5 5 4 5 4 4 5 5 5 5 5 6 6 6 7 8 9 9 8 8
8 6 5 5 5 6 6 6 6 6 6 5 5 6 9 9 8 8 6 5 5 5 5 5 5 4 4 4 5 5 5 5 5 5 5 5 5 5 6 7 8 9 9
6 5 5 4 5 6 6 6 6 6 6 5 6 7 9 9 9 7 5 6 5 5 5 5 5 5 4 4 4 5 5 5 5 5 5 4 5 5 5 5 6 6 7
5 5 5 5 6 6 5 6 6 6 5 5 6 8 9 9 8 6 5 5 5 5 5 5 5 5 5 4 4 4 4 4 4 4 4 4 4 4 4 5 5 5 6
5 5 5 6 5 4 4 5 5 5 5 5 6 8 9 8 6 5 5 5 5 5 5 5 5 5 5 5 4 4 4 4 4 4 4 4 4 4 4 4 4 5 5

GFSGL_250_rhum_027.txt.gz
RH
63 62 64 58 52 50 50 54 61 75 73 86 72 66 56 42 26 17 12 9 8 6 5 5 4 4 3 3 3 3 3 3 3 4 3 3 2 2 2 2 2 3 2
58 55 52 54 48 50 60 67 80 70 75 61 62 64 46 29 17 13 10 8 6 5 5 4 4 4 3 3 3 3 3 3 4 4 4 3 3 2 2 2 3 2 2
48 50 51 54 55 63 70 78 68 70 67 82 65 54 41 24 14 11 9 6 5 4 4 4 4 4 4 4 4 3 3 2 3 3 3 3 3 2 2 2 3 3 3
50 51 52 61 71 78 84 64 74 90 86 62 51 35 24 16 11 9 7 5 5 4 4 4 4 4 5 4 3 3 3 3 2 2 2 3 3 3 2 3 3 3 3
53 52 62 72 81 88 78 86 99 91 60 53 33 25 18 12 10 7 5 5 5 4 4 4 4 5 4 3 3 3 3 3 3 2 2 3 3 2 2 2 3 3 3
54 61 75 81 88 92 92 99 94 70 62 40 21 17 11 10 7 6 5 5 4 4 4 5 5 4 3 3 3 3 3 3 2 2 2 2 2 3 2 2 2 3 3
59 76 86 95 99 98 100 97 88 55 36 22 16 11 10 8 6 5 5 4 4 4 5 6 4 3 3 3 3 3 3 2 2 3 2 2 2 2 2 2 2 3 3
83 95 100 100 100 100 91 87 60 32 18 15 11 10 9 6 6 5 4 4 4 4 6 6 4 3 3 3 3 3 3 3 3 3 3 2 2 2 2 2 2 2 2
100 100 100 100 94 64 55 48 30 17 14 12 10 10 7 6 5 5 5 5 5 6 5 4 4 4 4 4 4 3 4 4 4 3 3 2 2 2 2 3 3 2 2
100 100 100 97 61 34 26 21 17 14 12 10 10 8 6 6 5 6 6 5 6 6 4 4 4 4 4 4 4 4 4 4 4 3 3 2 2 2 2 2 3 3 3
100 100 99 86 55 31 27 18 15 13 11 10 10 7 6 5 6 6 6 6 6 6 4 4 4 4 4 4 4 4 5 5 4 4 3 3 2 2 2 3 3 3 3
96 90 88 56 32 25 25 15 13 11 10 10 8 6 6 6 7 6 6 7 7 5 5 5 4 4 4 4 4 4 5 5 4 4 3 3 3 3 4 4 4 4 4
86 85 46 26 20 18 16 13 12 10 10 9 7 6 6 8 7 6 7 7 5 5 6 5 5 4 4 4 4 4 5 6 4 4 3 3 4 4 5 5 5 4 5
74 50 35 23 19 15 14 13 11 10 10 7 7 5 7 7 7 7 7 6 5 7 6 6 5 5 4 4 4 4 5 6 5 4 3 4 4 5 6 6 5 5 5
48 32 35 27 17 16 14 12 10 10 9 7 6 6 7 7 7 7 7 6 6 6 6 5 6 6 4 4 4 4 5 5 5 4 4 4 4 6 6 7 7 6 7
34 30 31 31 17 14 12 10 10 10 7 6 6 7 7 7 7 7 7 6 7 7 6 6 6 6 5 4 4 5 5 5 5 5 5 4 4 6 7 7 8 7 7
29 21 21 21 15 12 10 10 10 8 6 6 6 7 7 7 7 7 6 6 8 8 7 7 6 5 5 4 4 4 5 5 5 5 5 4 4 5 7 8 8 8 8
23 17 15 14 12 9 9 9 9 6 6 6 8 7 7 7 7 6 6 8 9 9 8 6 5 4 4 4 4 4 4 5 5 5 5 6 5 5 6 8 9 9 9
15 14 13 11 9 8 8 9 7 6 6 6 8 7 7 7 6 6 7 9 9 9 7 5 5 4 4 4 4 4 4 5 6 5 6 6 6 6 5 7 8 9 9
14 12 10 9 8 7 8 7 6 6 6 8 8 7 7 7 7 6 8 10 10 9 6 5 5 4 4 4 4 4 4 5 5 6 5 6 6 7 7 6 7 8 10
12 10 9 8 7 7 7 5 6 6 7 7 7 7 7 7 7 7 10 11 10 9 6 6 5 5 4 4 4 4 4 5 5 6 6 6 6 6 7 8 7 7 9
9 8 7 7 8 6 5 6 6 6 6 6 6 7 6 7 8 8 11 12 11 8 6 6 5 5 5 5 5 4 4 5 5 5 6 6 5 6 6 6 8 8 7
7 6 6 7 6 5 5 6 6 6 6 5 5 6 6 6 8 9 11 12 11 7 6 6 5 5 5 5 5 5 5 5 5 5 5 5 5 5 5 6 6 7 8
6 6 7 6 5 5 6 6 6 5 5 5 5 5 6 6 8 9 11 11 10 8 6 6 5 5 6 5 5 5 5 5 5 5 5 5 5 5 5 5 5 5 6
6 6 5 4 5 6 6 6 5 5 5 5 5 5 6 6 7 8 10 10 9 7 6 6 5 5 5 5 5 5 4 4 4 4 4 4 4 5 5 4 4 4 5
4 4 4 5 5 6 6 5 5 5 5 5 5 5 5 6 7 8 9 8 7 6 6 6 5 5 5 5 5 5 4 4 4 4 4 4 4 4 4 4 4 4 4

GFSGL_250_rhum_030.txt.gz
RH
72 74 71 61 51 50 47 47 50 57 62 65 78 80 63 53 48 40 30 17 14 11 10 8 6 4 4 4 3 3 3 3 3 4 4 4 3 2 2 2 3 2 2
84 77 63 55 52 47 47 53 60 66 70 83 84 62 36 31 27 21 17 14 11 10 8 5 4 4 4 3 3 3 3 4 4 4 3 3 3 3 2 2 3 3 2
83 68 59 52 48 51 55 67 81 82 82 92 74 58 39 36 25 17 14 12 10 8 5 5 4 4 4 3 3 4 4 4 3 3 3 3 3 3 3 2 2 3 3
76 67 60 56 66 68 73 87 84 80 92 86 72 44 32 26 19 14 11 10 8 5 5 4 4 4 4 4 4 4 4 3 2 2 2 3 3 3 3 2 2 2 3
80 75 66 70 78 78 82 87 80 82 87 74 51 29 22 17 14 11 9 8 6 5 4 5 5 5 5 5 5 4 3 3 2 2 2 2 2 2 2 2 2 2 2
87 80 78 77 75 87 87 81 84 80 72 61 39 24 17 14 12 9 9 7 5 5 5 6 5 5 5 5 4 3 3 3 3 2 2 2 2 2 2 2 2 2 2
80 76 74 75 79 89 87 92 88 61 44 42 32 18 14 11 9 9 7 6 5 5 6 6 5 5 5 4 3 3 3 3 3 3 2 2 2 3 2 2 2 2 2
78 76 83 82 91 92 93 88 57 45 34 27 23 14 12 9 9 8 6 5 5 6 6 6 6 5 4 4 4 4 3 3 3 3 3 3 3 3 2 2 2 2 2
76 83 86 89 92 100 95 61 50 56 33 20 15 12 10 8 8 8 6 5 6 6 6 6 6 5 4 5 4 4 4 3 3 3 3 3 3 3 2 2 2 2 2
79 88 94 100 100 94 74 60 47 34 20 14 12 11 9 8 8 7 6 6 6 6 6 6 5 4 5 4 4 4 4 3 3 4 4 4 3 3 2 2 2 2 2
96 99 100 100 87 73 56 49 44 20 14 12 11 10 8 9 8 6 6 7 6 6 6 5 5 5 4 4 4 4 3 3 3 4 4 3 3 3 2 2 2 2 2
100 100 100 97 69 66 44 39 21 14 12 11 10 9 9 9 7 6 7 7 6 6 6 5 5 5 5 5 5 4 4 3 4 4 4 3 3 3 3 3 3 3 3
100 98 81 67 48 47 36 22 13 12 12 10 10 9 9 8 6 6 8 7 6 6 6 6 6 6 6 5 5 4 4 4 4 4 4 4 4 3 3 4 4 4 4
88 68 58 41 42 40 31 21 14 13 11 10 10 9 9 7 6 6 8 6 6 6 6 6 8 7 6 5 4 5 4 4 4 4 4 4 4 3 4 4 5 5 5
80 65 50 40 31 27 22 21 14 11 10 10 10 9 8 6 6 7 7 6 6 6 7 8 8 7 6 6 5 4 4 4 4 4 4 4 4 4 4 5 6 6 6
59 54 43 28 18 16 14 13 11 10 10 10 9 8 6 6 7 7 7 6 6 7 8 9 8 8 6 5 4 4 4 4 4 5 5 5 5 4 4 5 6 6 6
52 53 38 26 15 13 12 11 10 10 10 9 9 6 6 6 7 7 7 6 7 7 8 10 9 7 5 5 4 4 4 4 4 5 5 5 5 5 4 5 7 7 7
28 18 15 15 12 10 11 10 9 9 8 10 7 6 6 7 6 6 7 7 7 8 9 11 10 7 5 5 5 4 4 4 4 4 5 5 6 6 5 5 6 8 8
16 14 13 11 10 10 11 9 8 8 9 7 6 6 7 7 5 6 7 7 7 8 10 12 10 7 6 6 5 5 4 5 4 4 5 5 6 6 6 6 5 7 9
12 12 11 11 9 9 9 8 8 8 7 5 6 7 7 6 6 6 6 6 7 8 11 13 11 8 6 6 5 5 5 5 5 4 4 5 6 6 6 7 6 6 8
12 11 10 8 8 8 8 8 7 6 5 6 7 7 6 6 6 6 6 6 7 9 11 12 12 9 7 6 6 5 5 5 5 5 4 5 5 6 6 6 7 7 7
8 9 8 7 7 7 7 7 5 5 5 6 7 7 5 6 6 6 6 6 7 8 10 11 11 10 8 6 6 6 5 5 5 5 5 5 5 5 6 6 6 7 8
8 7 6 6 7 6 5 5 5 5 6 7 6 5 6 6 7 6 6 6 7 8 10 10 10 10 8 7 6 6 5 5 6 5 5 5 5 5 6 6 6 6 6
6 6 6 6 5 4 5 5 5 6 6 6 5 5 7 8 7 6 6 7 7 8 9 9 9 8 7 7 6 6 6 5 5 6 5 5 5 4 5 5 6 6 6
5 5 4 4 4 5 5 6 6 6 5 4 5 6 7 8 7 6 7 8 8 8 8 8 8 8 7 6 6 6 6 5 5 5 5 5 4 4 4 4 5 5 5
4 4 4 4 5 5 6 5 5 4 4 5 6 6 8 8 8 7 8 8 8 7 7 7 6 6 6 6 6 6 5 5 5 5 5 5 4 4 4 4 4 4 4

GFSGL_250_rhum_033.txt.gz
RH
64 66 80 86 91 91 92 79 69 63 65 65 68 65 60 64 65 53 46 38 28 22 22 16 11 8 7 6 4 4 4 4 4 4 3 3 3 3 3 3 3 3 3
60 77 83 96 91 84 84 71 63 64 68 73 68 64 69 76 55 48 35 26 20 17 14 11 8 7 6 4 4 4 4 4 4 4 4 4 4 3 3 2 2 2 3
68 77 93 100 96 93 78 67 70 76 78 71 61 74 78 63 49 34 23 17 15 13 11 8 7 6 4 4 4 5 4 4 4 4 4 3 2 2 2 2 2 2 2
72 91 99 94 86 78 74 76 78 74 67 72 73 76 71 50 42 22 17 14 13 10 8 8 6 5 4 5 5 5 5 5 4 3 2 2 3 2 2 2 2 2 2
90 96 92 85 84 80 83 79 77 70 78 87 83 74 58 46 31 18 15 13 11 9 8 7 5 5 5 5 5 5 6 5 3 3 2 3 3 2 2 2 2 2 2
92 84 81 83 79 84 87 78 75 84 86 84 74 56 37 31 24 15 14 11 9 8 7 5 5 6 6 6 6 5 4 4 3 3 3 3 3 3 3 2 2 2 2
76 81 81 84 91 89 77 78 84 90 89 74 54 38 28 19 15 12 10 9 8 7 6 5 5 6 6 6 5 4 4 4 3 3 3 3 3 3 3 3 2 2 2
81 79 84 83 82 80 88 94 99 89 73 50 41 30 23 15 12 10 9 9 7 7 6 5 6 6 6 6 4 4 4 3 3 3 3 3 3 3 4 4 3 3 3
84 80 78 82 82 80 92 100 81 63 44 49 46 28 22 12 11 10 10 8 7 6 6 6 6 6 6 5 4 5 4 4 4 3 3 3 3 4 4 3 3 3 3
82 91 88 77 86 100 85 62 55 55 54 38 24 16 14 11 11 10 9 8 7 6 6 7 7 5 5 4 5 5 4 4 4 3 3 3 3 4 3 3 3 2 2
80 83 90 97 85 75 70 52 53 55 42 36 27 16 13 11 10 8 8 8 7 6 6 7 6 6 4 5 6 6 5 4 4 3 3 3 4 4 3 3 2 2 2
80 89 89 95 95 72 57 57 46 38 28 22 18 15 11 10 9 8 9 8 6 6 7 7 6 5 5 6 6 6 6 4 4 3 4 4 4 4 3 3 2 3 3
90 90 90 76 63 66 56 39 32 24 17 15 13 11 10 9 9 8 8 7 6 7 8 8 6 5 6 7 6 6 5 4 4 4 4 4 4 4 3 3 3 3 4
90 82 66 58 55 37 20 22 23 18 15 14 12 10 9 9 8 9 7 6 7 8 7 8 6 6 7 8 8 5 4 4 4 4 4 4 4 4 3 3 3 4 4
74 62 49 35 35 40 33 16 14 13 11 10 9 9 10 9 8 8 6 7 7 7 7 8 7 7 8 9 8 5 4 4 4 4 4 4 4 4 4 4 3 4 5
48 40 38 44 41 40 25 18 12 11 9 9 9 9 9 9 8 6 6 7 8 6 6 7 7 8 10 11 9 5 4 4 4 4 4 4 5 4 4 4 4 4 5
34 34 27 21 17 14 12 11 9 9 10 10 9 8 8 7 6 6 7 8 7 6 6 7 7 8 11 12 9 6 5 5 4 4 4 4 5 5 4 4 4 4 6
34 25 20 13 11 10 9 10 11 10 9 8 8 8 7 6 6 6 8 8 6 6 6 7 7 8 11 12 10 6 5 5 4 5 4 5 5 5 5 5 5 4 5
18 14 11 10 9 9 9 10 9 8 8 8 8 7 6 5 6 7 8 7 6 6 6 7 7 8 10 12 10 7 6 5 5 5 5 5 5 5 5 5 5 5 5
12 11 9 8 9 8 8 8 7 8 8 7 5 5 6 6 7 7 7 6 6 7 7 7 7 8 10 11 10 7 6 6 6 5 5 5 5 5 6 6 5 6 5
9 8 8 8 8 7 7 7 7 6 5 5 5 5 6 7 7 6 5 6 8 7 7 7 8 8 10 10 10 8 6 6 6 6 6 5 5 5 6 6 6 6 6
9 8 7 6 6 6 7 6 5 5 5 5 6 6 6 6 6 5 6 7 7 7 7 7 8 8 10 10 9 8 6 6 6 6 6 6 6 6 6 6 6 6 6
7 6 6 6 6 5 4 4 5 5 5 6 6 6 6 5 5 5 6 8 8 7 7 8 8 8 9 9 8 8 7 6 5 5 6 6 6 6 6 6 6 6 6
5 5 5 4 4 4 4 5 5 5 5 5 5 4 5 5 5 6 7 8 8 8 7 8 9 9 8 8 8 8 7 6 5 5 5 6 6 6 6 6 6 6 6
4 4 4 4 4 5 5 5 5 4 4 4 4 5 5 5 6 7 7 8 8 8 8 7 8 8 7 7 7 7 6 6 5 5 5 5 6 6 6 5 5 5 5
4 4 5 5 4 4 4 4 4 4 5 5 5 5 5 6 6 6 6 7 7 7 7 6 6 6 6 6 6 6 6 5 5 5 5 5 5 5 6 5 5 5 5

GFSGL_250_rhum_036.txt.gz
RH
44 43 40 52 57 62 74 91 88 85 82 75 77 82 85 76 63 62 66 70 55 42 32 22 19 14 11 9 7 5 5 5 4 4 4 4 4 4 4 3 3 3 3
53 44 53 63 60 74 89 81 80 81 75 74 81 79 72 68 72 80 73 52 42 31 23 19 14 11 9 7 6 6 5 4 4 4 4 4 4 4 4 4 4 3 3
65 69 62 58 74 87 74 74 76 69 70 85 88 80 72 72 86 77 51 42 37 28 20 14 13 10 8 6 6 5 4 4 4 4 5 4 4 4 4 3 3 2 2
72 61 57 73 82 72 72 73 69 73 84 85 84 78 79 86 74 47 34 31 24 20 14 11 9 8 7 6 6 4 4 4 4 4 4 4 3 2 2 2 2 2 2
58 56 67 73 67 74 80 73 73 82 80 77 77 88 82 64 56 44 37 30 17 14 12 10 8 7 7 6 4 4 5 4 4 4 3 3 2 2 2 2 2 2 2
56 60 71 64 70 76 77 82 79 70 73 86 81 78 66 47 39 31 26 20 14 12 10 9 8 7 7 5 5 5 4 4 4 3 3 3 3 3 3 3 3 3 2
60 69 68 72 80 89 88 78 69 79 74 73 69 56 46 49 53 33 25 16 11 9 9 8 8 7 6 5 5 6 5 5 4 4 4 3 3 3 3 2 2 2 2
70 70 78 84 89 91 83 76 76 68 77 66 56 58 54 54 35 26 14 11 12 10 9 8 7 6 6 6 6 5 5 4 4 4 4 4 3 3 3 3 3 3 3
71 83 87 90 91 85 79 66 65 74 68 55 44 34 28 23 19 11 11 11 9 9 8 8 7 5 6 7 7 6 5 5 5 5 4 4 3 3 3 3 3 3 3
85 87 85 82 75 61 57 78 78 69 56 48 47 36 25 16 14 12 10 11 11 9 8 8 6 6 6 6 6 6 5 6 5 4 4 4 3 3 3 3 4 4 3
93 89 86 68 68 80 77 71 69 58 46 38 39 27 22 17 14 12 10 10 10 8 7 7 6 6 6 6 7 6 5 6 6 4 4 3 3 3 4 4 4 3 3
85 77 70 72 72 77 70 60 44 31 30 23 18 22 16 12 10 10 9 9 9 8 7 6 6 7 6 6 7 6 6 7 6 4 4 3 3 3 4 4 4 3 3
73 68 67 70 68 66 60 53 44 34 22 17 12 10 9 8 8 10 10 8 8 8 7 6 7 7 6 6 7 6 7 7 6 4 4 4 3 3 4 4 4 3 3
65 64 69 68 62 55 46 36 25 24 22 17 11 10 9 8 8 9 10 9 8 7 6 6 7 6 6 6 6 6 8 8 5 4 4 4 3 3 4 4 4 3 3
69 70 64 51 36 32 25 21 19 16 11 9 8 8 8 8 8 7 8 9 6 5 6 7 7 6 6 6 6 6 8 8 6 4 4 4 4 4 4 4 4 4 3
61 46 32 29 27 23 18 15 12 10 10 9 9 8 8 8 8 7 6 5 6 6 7 7 7 6 6 6 6 7 9 9 6 5 4 4 4 4 4 4 4 4 4
45 26 30 23 15 12 10 9 10 11 9 9 8 7 6 6 6 6 5 5 6 7 7 7 6 6 7 6 7 7 9 10 7 5 5 5 4 4 4 4 4 4 4
27 22 16 13 11 10 9 10 9 8 8 8 7 7 6 5 5 5 5 6 7 7 7 6 6 8 8 6 7 7 9 10 8 5 5 5 5 4 4 4 5 5 4
19 16 13 11 9 10 9 8 7 6 6 7 6 5 5 4 5 5 6 6 7 7 6 6 7 8 8 6 6 7 8 10 9 6 5 5 5 5 4 4 5 5 5
12 9 8 8 8 8 7 7 7 6 5 4 4 5 5 5 5 6 6 6 6 6 6 6 8 9 7 7 7 7 8 9 9 7 6 5 5 5 5 4 4 5 5
8 8 7 6 6 6 6 5 5 4 4 4 5 6 6 6 6 5 5 5 5 5 6 7 8 9 8 7 8 7 8 9 8 7 6 5 5 5 6 5 5 5 6
7 7 7 6 5 5 4 4 4 4 5 6 6 6 5 5 5 5 5 5 6 6 7 8 9 10 9 8 8 8 8 8 8 8 6 6 6 5 5 6 5 5 5
7 6 5 4 4 4 4 4 5 5 5 5 5 5 5 5 5 6 6 6 6 6 7 8 8 9 9 8 8 8 8 8 7 8 6 6 6 6 5 5 6 5 5
5 4 4 4 4 4 5 5 5 4 4 4 4 5 5 5 6 6 6 6 7 7 7 7 8 8 8 8 6 7 7 6 6 7 7 6 6 6 6 5 5 6 5
4 4 4 4 5 5 4 4 4 4 4 4 5 5 5 5 5 5 5 6 6 6 7 7 6 6 7 8 7 6 7 6 6 6 7 6 5 5 5 6 5 5 5
4 4 4 4 4 4 4 4 3 4 4 4 4 4 4 4 4 4 4 4 4 5 5 5 5 6 6 6 7 6 5 6 6 5 5 5 5 5 5 5 5 5 5

GFSGL_250_rhum_039.txt.gz
RH
59 58 57 44 65 66 62 58 52 57 68 74 65 60 70 84 85 78 71 64 70 67 57 47 35 27 24 16 11 8 7 5 5 5 4 4 3 3 4 3 3 3 3
50 54 56 59 60 58 54 50 56 66 72 66 62 77 85 85 84 70 64 70 75 62 44 36 27 20 16 12 9 7 6 5 5 5 4 3 4 4 4 3 3 3 3
71 61 55 56 50 43 49 59 64 68 67 69 74 81 84 79 66 62 69 73 64 46 42 32 20 14 11 11 8 6 6 6 5 5 4 4 4 4 4 3 3 3 3
58 51 49 46 49 56 59 65 67 66 72 75 78 82 71 61 74 78 73 56 42 38 33 23 17 13 10 9 8 7 6 6 5 4 4 4 4 3 3 3 3 2 2
58 59 51 49 53 60 69 64 69 72 78 82 76 67 64 74 74 58 52 45 43 33 26 16 11 9 9 9 8 7 7 6 4 5 5 4 3 3 3 3 3 3 2
61 55 59 58 63 71 69 70 67 78 82 77 67 63 64 59 55 50 43 38 31 23 14 11 9 9 8 9 8 7 6 5 5 5 5 4 3 3 3 3 3 3 2
60 57 59 70 72 70 74 74 85 83 77 72 65 64 67 55 44 35 26 19 16 11 9 9 9 9 9 8 8 7 5 5 6 6 5 4 4 4 4 3 3 2 2
64 65 66 66 72 78 81 87 85 73 60 55 60 58 51 43 39 30 23 18 13 10 8 8 10 10 8 8 7 5 5 6 5 5 5 4 6 5 4 3 3 2 2
67 68 71 72 76 85 89 84 67 59 64 65 53 40 33 28 29 27 19 14 12 11 9 10 9 8 8 8 6 5 6 6 5 6 5 6 6 5 3 3 3 3 2
84 83 74 82 87 85 75 62 61 61 60 54 38 30 26 22 17 13 11 10 12 12 10 10 8 7 7 6 5 6 6 5 5 5 5 7 6 4 3 3 3 3 3
81 70 81 81 81 70 68 61 60 55 52 39 33 26 20 14 11 10 10 10 10 10 9 8 8 7 6 5 6 6 6 5 5 5 5 7 5 3 3 3 3 3 3
64 74 78 76 70 67 61 60 59 49 35 28 19 14 11 10 10 11 11 9 8 8 7 7 7 6 5 6 6 7 6 5 6 6 6 8 4 4 3 3 3 3 3
71 73 67 70 69 63 59 45 38 30 22 15 11 9 9 8 8 8 8 8 7 6 7 6 5 5 6 6 7 6 6 6 6 6 8 9 5 4 3 3 3 4 3
72 71 72 63 57 43 32 31 23 16 11 10 9 8 8 8 7 7 7 7 7 6 6 5 5 6 6 7 7 6 6 6 6 6 8 9 4 4 3 3 3 4 3
75 70 60 51 37 30 28 20 14 10 9 8 7 7 6 7 7 7 7 6 5 5 5 5 6 7 7 7 6 6 7 7 6 7 8 8 4 4 4 3 3 4 4
66 55 47 31 24 24 23 19 12 10 8 8 7 7 6 5 5 5 5 5 5 6 6 6 6 7 6 6 6 7 8 7 6 7 8 8 4 4 4 4 4 4 4
56 42 28 22 24 20 14 9 9 10 9 7 5 5 4 4 4 4 5 5 6 6 6 6 6 6 6 6 6 8 8 7 6 7 8 8 6 4 4 4 4 4 4
44 35 28 24 17 14 10 9 8 7 7 6 4 4 4 4 4 5 6 6 6 6 6 6 5 5 5 6 7 8 8 7 7 8 8 9 6 4 4 4 4 4 4
29 21 16 13 11 9 8 8 6 6 5 5 5 4 4 5 5 5 5 5 5 5 5 5 6 6 6 7 8 9 9 8 8 8 8 9 7 5 5 5 4 4 4
22 15 11 9 8 8 7 5 4 4 5 5 6 5 5 6 5 4 4 5 5 6 6 6 6 6 7 8 9 9 10 8 9 8 9 9 8 6 5 5 5 5 4
12 10 9 8 7 6 4 4 4 4 5 6 6 6 5 5 5 5 5 5 6 6 7 7 7 7 7 8 9 10 10 9 8 9 9 9 9 7 6 5 5 5 5
10 9 8 6 5 4 4 4 5 5 5 4 4 4 4 4 5 5 5 6 6 6 6 7 7 7 7 8 8 9 10 10 8 8 8 8 8 8 6 5 5 5 5
8 7 6 5 4 4 4 4 5 4 4 3 3 4 4 4 5 5 5 5 5 5 5 6 6 6 7 7 7 8 9 9 8 7 7 7 7 7 7 6 5 5 5
5 5 4 4 4 4 4 4 4 4 3 3 3 4 4 4 4 4 4 4 4 4 5 5 5 5 6 6 6 6 7 8 7 7 7 7 7 7 6 7 6 5 5
4 4 4 4 4 4 4 3 3 3 3 4 4 4 3 3 3 3 3 3 3 3 4 4 4 5 5 6 6 6 6 6 6 7 7 6 6 6 6 6 6 5 5
4 4 4 4 4 3 3 3 3 4 4 3 3 2 2 2 2 2 3 3 3 3 4 4 4 4 4 5 5 5 5 5 6 6 5 6 5 5 5 5 5 5 5

GFSGL_250_rhum_042.txt.gz
RH
53 52 53 48 44 50 54 53 58 61 57 60 66 64 64 65 71 70 74 80 75 64 63 59 57 56 41 28 22 16 13 10 8 7 6 5 5 5 4 4 3 3 3
48 51 48 52 64 75 70 67 66 65 64 60 58 64 69 68 72 81 81 71 59 60 58 46 42 31 26 21 15 10 8 7 6 7 6 5 4 5 4 4 4 4 4
49 59 63 68 72 69 63 59 55 57 58 62 68 67 69 76 82 78 62 54 59 59 50 37 30 27 21 15 11 9 8 7 6 6 6 5 5 4 4 4 4 4 3
65 66 62 59 60 61 59 59 58 62 69 73 67 75 80 79 70 58 53 57 56 44 33 26 24 21 14 11 9 9 9 8 7 6 5 6 5 4 4 4 4 3 2
55 54 61 68 63 56 60 64 72 77 69 67 77 78 71 60 54 59 57 50 41 33 27 23 19 15 12 10 9 9 9 8 6 6 6 5 4 4 5 4 4 3 3
56 64 67 69 68 64 67 77 73 62 70 76 71 62 61 57 60 56 43 38 29 24 20 16 12 10 9 9 8 8 8 7 7 6 5 4 4 5 4 4 3 4 3
63 74 72 74 78 73 77 75 62 62 68 66 65 58 62 59 46 38 36 30 22 16 13 11 10 9 9 9 7 7 7 7 8 6 4 5 5 4 4 3 4 4 4
80 75 76 81 78 80 80 69 72 77 66 63 64 64 51 44 37 30 22 18 12 11 10 9 9 8 8 8 7 7 7 7 5 5 5 6 5 4 4 4 4 3 3
79 82 83 78 84 86 71 77 76 74 79 69 66 56 40 32 27 18 13 10 9 10 9 8 8 8 7 8 7 7 6 5 4 5 6 6 5 5 4 5 5 3 3
87 89 83 84 92 77 80 81 84 80 70 69 58 39 28 24 17 11 9 9 8 9 8 8 7 7 8 6 6 5 5 4 5 6 7 5 5 5 5 7 6 4 3
85 78 83 85 83 84 79 86 82 73 62 53 42 33 23 15 10 8 8 9 8 8 7 6 6 6 5 5 5 5 5 5 6 6 6 5 5 5 6 8 5 3 3
78 84 82 75 84 85 92 83 66 60 51 38 29 21 14 10 8 8 8 7 6 6 5 5 5 5 5 5 5 5 6 6 6 6 5 5 5 5 7 7 4 4 3
81 87 78 86 90 90 84 65 57 47 32 28 19 14 10 9 8 7 7 5 4 5 4 4 5 5 5 6 6 6 6 6 6 6 6 6 5 5 7 7 4 4 3
91 81 83 91 95 89 66 56 48 38 28 20 13 11 9 8 6 5 5 5 5 5 4 5 6 6 6 6 6 6 6 6 6 6 7 7 6 6 7 6 4 4 3
80 81 92 97 84 60 55 44 33 28 19 13 10 8 8 6 5 5 5 5 5 5 5 6 6 6 5 5 5 5 6 6 5 7 7 6 6 6 8 7 4 4 4
89 95 93 76 58 56 42 29 26 19 14 10 8 6 5 4 5 5 5 6 6 6 6 6 5 5 5 5 5 5 6 6 6 8 8 7 6 7 8 7 4 4 4
95 81 72 61 56 47 37 24 17 14 11 8 6 4 3 4 5 5 6 7 6 6 6 5 5 5 6 6 6 6 6 6 8 9 8 7 7 7 8 7 5 4 4
79 70 56 50 39 25 19 14 10 8 6 6 6 4 4 4 5 5 6 6 6 5 5 5 6 6 6 6 7 6 6 7 8 10 9 8 8 7 8 6 5 5 4
63 54 45 37 28 18 14 10 7 5 5 5 5 5 5 5 5 4 4 5 5 5 5 5 6 6 6 7 7 7 7 7 8 9 9 9 8 7 8 7 5 5 5
55 46 36 25 16 12 10 7 5 4 4 4 5 5 5 4 4 4 4 4 5 5 6 6 6 6 6 6 7 7 7 7 8 8 9 9 9 8 7 7 5 5 5
39 31 22 16 12 9 6 4 4 4 4 5 5 4 4 4 4 4 4 4 5 5 6 6 5 6 6 6 6 7 7 7 7 8 9 9 9 9 7 7 6 5 5
26 21 15 11 8 6 4 4 4 4 4 4 4 3 3 3 4 4 4 4 4 4 4 4 4 4 5 5 5 6 6 7 7 7 8 8 8 8 8 7 7 6 5
17 14 10 8 5 4 4 4 4 4 4 3 3 3 3 4 4 3 3 3 3 3 3 3 3 4 4 4 4 4 5 6 6 7 7 8 8 8 8 7 7 6 5
12 9 7 5 4 4 4 4 4 3 3 3 3 3 3 3 3 2 2 2 3 3 3 3 3 4 4 4 4 4 4 5 6 6 6 6 7 7 8 7 7 6 5
8 6 4 4 4 4 4 3 3 3 3 3 3 3 3 2 2 2 2 2 2 3 3 3 3 3 3 4 4 4 4 4 5 6 6 6 6 7 7 7 6 6 6
5 4 4 4 4 4 3 3 3 3 3 3 3 2 2 2 2 2 2 2 2 2 3 3 3 4 4 3 4 4 4 4 5 5 5 5 6 6 6 6 5 5 5

GFSGL_250_rhum_045.txt.gz
RH
44 44 44 41 38 42 50 51 61 67 72 63 59 60 66 66 70 63 60 69 76 72 63 59 62 53 47 43 39 31 23 16 12 10 10 9 8 6 6 6 5 5 4
59 50 39 39 48 52 54 60 67 71 64 66 71 71 74 76 69 70 83 83 71 63 67 64 48 40 36 32 24 18 12 9 8 8 8 8 7 6 6 6 4 4 4
48 45 56 57 55 59 61 64 62 60 64 72 70 71 78 78 81 88 80 66 60 63 60 46 36 31 26 20 13 10 8 8 7 7 7 7 6 6 6 5 5 4 3
88 84 71 59 62 60 60 56 68 71 78 76 79 89 86 85 83 73 68 58 52 46 36 31 26 22 15 11 9 8 8 7 7 7 6 6 6 5 6 5 4 4 4
80 59 52 53 58 56 58 67 74 81 76 86 93 85 77 77 68 62 54 58 46 33 26 23 19 13 10 9 8 7 7 7 7 6 6 6 5 5 5 4 4 4 4
58 50 51 59 58 56 67 80 83 77 87 94 79 76 74 66 63 58 60 52 38 29 25 17 12 9 9 8 7 7 7 7 6 6 6 6 4 4 4 4 5 5 4
53 54 61 64 63 69 78 82 75 82 90 82 86 82 81 84 78 66 48 39 34 25 16 11 9 8 8 7 6 6 6 6 5 5 5 4 4 4 4 4 5 4 4
58 63 68 70 78 82 83 76 79 92 88 79 80 87 92 77 62 58 45 30 22 15 10 9 8 8 6 5 5 4 4 4 4 4 4 4 4 4 5 5 4 4 4
81 83 82 84 87 88 84 89 97 88 81 90 94 89 75 73 73 48 28 20 16 11 9 8 7 6 5 5 5 4 4 4 4 5 5 5 5 6 6 4 4 4 4
79 83 89 91 88 80 80 91 93 92 97 96 84 76 81 70 48 30 21 15 12 9 8 6 5 5 5 5 4 4 4 4 5 5 5 6 6 6 5 4 4 4 4
91 94 92 89 86 85 92 92 96 100 96 86 87 80 63 44 36 23 15 11 8 7 6 5 5 5 5 5 5 5 5 5 5 5 5 6 6 6 5 5 5 4 4
91 89 89 88 86 92 93 98 100 92 88 84 69 65 52 37 23 16 11 9 6 5 5 5 5 6 6 6 6 6 6 5 5 5 5 5 6 5 6 6 5 5 5
93 88 88 86 99 96 97 99 92 79 72 63 63 50 35 25 16 11 9 7 5 5 5 5 6 7 7 6 6 5 5 5 5 5 5 5 5 5 6 6 5 5 6
82 79 80 98 96 98 98 87 74 70 62 59 54 32 19 15 12 8 6 6 4 5 6 6 6 6 6 6 5 5 5 5 6 5 5 5 5 6 7 6 5 6 6
72 83 93 93 99 95 85 76 63 61 55 48 32 17 13 10 8 6 5 5 5 6 6 6 5 5 5 5 5 5 6 6 6 6 6 6 6 8 7 6 6 6 6
89 91 94 98 90 82 74 60 61 66 64 42 22 12 8 6 5 5 5 6 6 6 6 5 4 4 5 5 5 5 6 6 7 7 6 6 7 8 8 7 6 6 6
94 97 94 84 80 78 62 53 45 47 42 25 15 9 6 5 5 5 5 6 5 5 5 4 4 5 5 5 5 6 6 6 7 7 7 7 8 8 8 7 7 6 6
90 79 75 76 69 52 42 40 29 18 13 12 11 8 6 5 5 5 5 4 4 4 4 4 5 5 5 5 5 6 6 6 6 7 7 7 8 8 8 8 7 6 6
76 73 69 59 48 41 38 27 17 12 10 7 6 6 5 5 6 4 4 3 4 4 4 4 5 5 5 5 5 5 5 6 6 6 7 7 8 8 8 7 7 7 6
70 65 54 48 39 33 24 17 13 10 8 6 4 4 5 5 4 3 3 3 4 4 4 4 4 4 4 4 4 4 4 5 5 6 6 7 7 7 8 7 7 7 7
65 55 50 35 28 21 17 12 9 7 5 5 4 5 4 4 3 3 3 3 3 3 3 3 3 3 3 3 3 3 4 4 5 5 6 6 7 7 8 7 7 7 7
54 45 33 25 20 16 11 8 6 5 4 5 5 4 3 3 3 3 3 3 3 2 3 3 3 3 3 3 3 3 4 4 4 4 5 6 6 6 7 8 6 6 6
40 31 24 19 14 10 7 5 4 4 4 4 4 3 3 3 3 3 3 2 2 2 2 3 3 3 3 3 3 3 4 4 4 4 5 5 6 6 6 7 7 6 6
30 23 17 13 9 7 5 4 4 4 4 3 3 3 3 3 2 2 2 2 2 2 2 2 2 2 3 3 3 3 3 4 4 4 4 5 5 6 6 6 6 6 6
19 15 11 8 6 5 4 4 4 4 3 3 3 3 3 2 2 2 2 2 2 2 2 2 2 2 2 3 3 3 3 3 3 4 4 5 5 5 6 6 6 6 6
13 10 7 5 4 4 4 4 4 3 3 3 3 2 2 2 2 2 2 2 2 2 2 2 2 2 2 2 3 3 3 3 3 4 4 4 4 5 5 5 5 5 5

GFSGL_250_rhum_048.txt.gz
RH
78 98 100 96 82 58 61 58 51 52 54 57 60 62 59 63 69 62 62 68 72 75 74 76 72 58 46 40 34 24 20 15 10 9 8 7 7 6 6 6 6 5 5
99 100 100 68 55 85 74 61 61 52 55 67 70 62 63 65 60 60 70 76 77 74 81 65 58 45 38 30 21 16 12 11 9 8 7 7 6 6 6 6 5 5 5
100 85 62 65 84 78 74 63 52 57 64 73 72 76 76 69 73 75 83 82 85 85 72 63 49 43 32 20 16 14 10 9 8 7 7 5 4 4 5 4 4 5 4
69 69 73 78 81 81 65 56 64 75 77 82 82 76 79 75 74 81 83 96 91 75 67 56 53 38 24 18 13 10 8 7 6 5 4 4 4 4 4 4 4 4 4
78 71 83 91 82 68 64 62 72 78 83 80 78 80 75 78 88 100 97 89 73 74 65 52 41 29 21 13 10 8 6 5 5 5 4 4 4 4 4 4 4 3 3
90 98 96 88 75 77 66 60 67 79 84 81 83 78 77 84 90 87 79 77 78 70 50 45 40 22 13 10 8 5 5 4 5 4 4 4 4 4 4 4 4 4 4
100 100 90 81 74 66 56 59 69 78 82 83 84 84 98 95 89 87 83 84 72 56 54 46 26 15 10 8 6 5 5 4 5 5 4 4 4 4 4 4 4 5 5
86 72 66 60 52 56 60 68 76 82 83 80 76 88 95 97 89 92 88 70 62 62 48 29 17 11 7 6 5 5 5 5 6 6 5 5 5 5 5 4 4 5 6
78 72 57 54 69 72 76 82 85 92 88 84 99 99 99 95 97 88 75 66 62 44 29 19 11 8 6 5 5 5 5 6 6 6 6 5 5 5 5 4 5 5 5
64 54 62 73 77 82 87 90 92 88 85 98 95 96 97 100 94 82 70 53 36 25 17 12 7 6 6 5 5 6 6 6 6 6 6 5 5 5 5 5 4 4 5
60 67 75 86 90 94 92 86 84 90 99 98 99 100 99 93 82 63 47 31 21 15 12 9 6 5 5 6 6 6 5 6 6 6 5 5 5 5 5 5 4 4 4
71 87 100 100 99 86 85 90 94 96 93 100 100 98 95 79 54 41 29 18 15 11 9 7 5 5 6 6 6 6 5 5 5 6 6 6 6 6 6 5 5 5 6
95 100 100 93 84 90 93 96 94 94 99 99 88 80 69 52 40 27 18 15 12 8 7 6 5 6 6 6 6 5 5 5 5 5 5 6 6 6 6 6 6 6 7
100 94 86 87 95 91 91 90 92 100 95 81 66 50 38 30 25 22 17 11 7 5 5 6 6 6 6 5 5 5 4 5 5 6 6 6 7 7 7 6 6 7 8
87 85 88 91 88 89 88 87 96 87 73 55 47 38 24 18 18 14 10 8 6 5 5 6 5 5 4 4 4 4 5 5 6 6 6 6 7 7 7 6 6 8 8
87 89 89 88 88 84 78 86 84 77 70 64 47 31 20 16 12 8 6 5 5 5 6 5 5 4 4 4 4 5 5 5 5 6 6 6 6 7 7 7 7 8 8
88 86 88 88 82 77 81 79 74 80 67 61 49 29 20 13 10 7 5 5 5 5 5 4 4 4 4 4 5 4 5 5 5 5 6 6 6 6 7 7 7 8 7
81 87 86 80 77 80 77 64 54 42 42 45 39 23 16 10 7 5 5 5 5 4 4 4 4 4 4 4 4 4 4 4 4 4 4 5 6 6 7 7 7 8 8
87 84 81 81 78 72 65 56 44 37 25 18 14 14 10 7 5 4 5 5 4 3 3 4 4 4 3 3 3 3 3 3 3 3 4 4 6 6 7 7 7 8 8
81 84 83 75 70 65 55 44 34 22 16 14 11 8 6 4 5 5 4 3 3 3 3 3 3 3 3 3 3 3 3 3 3 3 4 4 5 6 6 7 7 7 8
87 84 75 71 66 54 37 28 20 16 13 11 8 5 4 5 5 4 3 3 3 3 3 3 2 2 2 3 3 3 3 3 3 3 4 4 4 5 6 6 6 6 7
86 74 70 61 46 33 25 19 15 12 10 7 5 4 5 4 3 3 3 3 3 2 2 2 2 2 2 3 3 3 3 3 3 3 4 4 4 5 5 6 6 6 7
75 66 51 39 31 22 17 13 10 8 6 4 4 5 4 3 3 3 3 3 2 2 2 2 2 2 2 2 2 2 2 3 3 3 3 4 4 4 4 5 6 6 6
54 44 38 31 24 17 12 9 8 6 4 4 4 4 3 3 3 3 2 2 2 2 2 2 2 2 2 2 2 2 2 3 3 3 3 4 4 4 4 5 6 6 5
40 36 28 21 15 11 9 7 5 4 4 4 4 3 2 3 2 2 2 2 2 2 2 2 2 2 2 2 2 2 2 2 3 3 3 4 4 4 4 5 5 6 5
33 25 18 13 10 8 6 4 4 4 4 3 2 2 2 2 2 2 2 2 2 2 2 2 2 2 2 2 2 2 2 2 3 3 3 4 4 4 4 4 5 5 6

GFSGL_250_rhum_051.txt.gz
RH
70 72 100 100 100 100 100 100 96 99 100 91 96 75 59 55 66 74 80 76 73 72 66 68 71 72 81 75 68 66 48 30 23 18 10 7 5 4 4 3 3 3 3
83 100 100 100 100 100 100 100 100 80 82 81 79 72 73 72 71 80 79 79 78 67 67 74 85 89 72 67 62 50 32 22 15 10 9 6 4 3 3 3 3 3 3
100 100 100 100 100 100 100 99 77 77 84 88 77 79 72 62 64 74 81 75 66 66 81 90 87 68 67 65 52 35 24 17 12 10 7 5 4 4 3 3 3 3 3
100 100 100 98 92 79 71 71 64 77 88 79 81 70 75 71 74 81 78 73 76 95 98 82 69 69 72 55 36 25 20 15 11 8 6 4 4 4 4 4 4 3 3
100 98 85 74 71 73 59 68 85 90 93 92 75 80 80 80 82 75 76 85 90 82 79 75 76 71 54 41 27 21 18 12 8 6 5 4 5 4 4 4 4 4 4
86 71 70 72 65 72 90 97 99 97 96 75 78 77 84 81 74 70 66 75 85 85 79 82 72 59 45 29 20 19 14 8 6 6 5 5 5 5 4 5 5 4 4
66 66 70 78 86 97 100 100 100 90 69 80 84 87 78 74 76 79 84 89 87 83 86 71 58 45 30 20 18 14 9 6 5 6 6 6 5 5 5 5 4 4 4
69 83 87 89 96 100 100 97 80 67 81 84 82 76 78 83 79 82 85 87 85 88 75 60 47 34 21 16 13 9 7 5 6 6 6 6 5 5 5 5 4 4 4
91 87 83 98 100 100 94 67 71 82 82 80 79 78 84 86 84 85 84 87 90 82 63 55 40 24 17 12 8 6 6 6 6 6 6 5 5 4 5 5 5 4 4
78 89 100 100 92 75 68 76 80 81 81 80 80 87 90 87 88 87 89 87 76 61 59 44 26 16 12 8 6 6 6 6 6 5 6 5 5 4 5 5 5 5 5
94 95 88 77 75 78 79 76 84 83 86 86 88 93 88 83 85 91 90 75 58 47 36 24 16 11 8 6 5 6 7 6 6 5 5 5 5 5 5 5 6 5 5
89 78 78 80 80 77 83 88 90 96 92 90 92 90 84 87 94 95 84 62 42 23 18 15 12 8 6 5 6 6 6 6 5 4 5 5 5 5 5 6 6 6 6
79 78 78 82 87 94 96 100 97 89 85 85 87 88 94 98 98 73 56 45 31 18 14 11 9 6 5 5 6 6 5 5 4 4 5 5 5 5 6 6 6 6 6
82 86 92 98 100 100 100 98 91 85 84 84 86 92 98 85 64 52 37 28 21 19 12 8 6 5 5 5 5 5 4 4 4 4 4 4 5 5 6 5 6 6 6
90 92 96 100 99 98 96 98 93 84 90 96 96 87 71 55 42 32 24 17 14 10 7 6 5 5 5 5 4 4 4 4 4 4 4 4 5 5 5 5 6 6 6
88 88 91 88 85 84 95 92 93 98 96 93 78 63 44 34 25 19 14 10 8 5 4 4 5 5 4 4 3 4 4 4 4 4 4 4 4 4 4 5 5 6 6
100 100 100 98 90 79 80 93 100 100 94 77 62 43 37 31 19 12 9 7 5 4 4 5 5 4 3 3 4 4 4 4 3 3 3 3 3 4 4 4 5 5 6
100 98 93 92 84 80 91 97 92 79 69 61 52 42 35 19 12 9 6 4 4 4 5 4 3 3 3 3 4 3 3 3 3 3 3 3 3 3 4 4 4 5 6
81 88 87 82 82 87 87 75 71 59 49 41 35 24 16 14 11 7 5 4 5 5 4 3 3 3 3 3 3 3 3 3 3 3 3 3 3 3 4 4 4 5 6
84 78 80 84 87 74 71 68 55 47 35 26 15 11 11 10 9 7 5 4 4 3 3 3 3 3 3 3 3 3 3 3 3 3 3 3 3 4 4 4 4 4 5
76 78 85 81 72 77 64 54 45 32 22 14 11 9 7 6 5 5 5 5 3 3 3 3 3 3 2 2 2 2 3 3 3 3 3 3 3 4 4 4 4 4 5
80 86 79 78 70 60 52 41 30 21 14 11 8 7 6 4 4 5 4 3 3 3 3 3 2 2 2 2 2 2 2 2 3 3 2 3 3 3 4 4 4 4 4
81 78 73 68 60 51 38 30 21 14 11 8 7 6 4 4 4 4 3 2 2 3 3 2 2 2 2 2 2 2 2 2 3 3 3 3 3 3 4 4 4 4 4
73 69 65 57 47 37 29 19 14 11 8 6 5 4 4 4 3 3 3 3 2 2 2 2 2 2 2 2 2 2 2 2 3 3 3 3 3 3 4 4 4 4 4
65 60 52 40 35 27 18 14 10 8 6 4 4 4 4 3 2 2 3 3 2 2 2 2 2 2 2 2 2 2 2 3 3 3 3 3 3 3 4 4 4 4 4
50 40 35 29 21 17 13 10 7 5 4 4 4 4 3 2 2 2 2 2 2 2 2 2 2 2 2 2 2 2 2 2 3 3 3 3 3 3 3 4 4 4 4

GFSGL_250_rhum_054.txt.gz
RH
45 51 59 62 84 98 89 100 100 100 100 100 100 100 98 100 98 79 75 72 75 75 72 63 64 68 67 68 74 86 77 64 56 59 41 30 21 16 10 6 4 4 4
56 50 50 57 65 82 100 100 100 100 100 100 100 100 100 92 74 77 85 84 76 79 76 76 75 76 84 87 83 69 68 61 55 45 37 24 15 11 7 5 4 4 4
49 49 53 62 74 98 100 100 100 100 100 100 100 89 81 64 70 78 80 78 79 79 81 75 84 86 77 77 72 71 69 63 52 36 23 17 13 9 6 4 4 5 4
52 51 59 73 94 100 100 100 100 100 96 92 81 73 65 84 86 77 78 85 92 93 84 81 83 84 85 82 70 70 68 58 38 22 17 13 11 6 5 5 5 5 4
53 58 79 100 99 99 100 100 100 99 81 73 65 72 89 84 80 87 89 99 100 91 82 90 94 87 81 75 72 70 57 38 27 17 15 11 8 5 5 6 5 5 4
46 47 82 98 100 100 100 100 80 68 65 68 88 90 90 92 96 95 97 100 92 85 94 96 89 81 79 76 70 59 45 34 21 16 11 9 5 5 5 5 5 4 4
49 52 60 83 94 96 88 70 63 70 83 95 97 92 99 100 100 98 89 87 88 95 91 87 84 79 74 69 56 42 35 25 19 12 8 6 5 6 6 5 5 4 4
53 58 69 81 82 69 63 71 82 90 99 96 97 100 100 99 93 82 82 88 93 88 90 86 76 79 73 55 36 30 24 19 12 9 6 5 6 6 6 5 5 4 4
65 72 73 71 72 78 88 97 100 100 100 100 100 99 95 86 89 90 90 89 89 93 84 82 76 72 59 40 31 22 16 12 6 5 5 6 6 5 5 5 4 4 4
95 94 92 96 100 100 100 99 96 100 99 100 96 86 87 88 86 90 83 84 84 75 84 83 72 54 46 32 22 15 10 7 5 5 6 6 5 5 4 4 5 5 5
89 95 100 100 98 94 95 96 97 100 86 82 88 93 97 87 80 83 78 70 68 83 78 65 52 42 32 23 14 10 6 5 5 6 5 5 4 4 4 4 5 5 5
98 95 94 96 98 99 98 91 83 81 86 86 92 92 88 86 75 75 75 87 86 67 57 46 40 30 18 12 8 6 4 5 5 5 4 4 4 4 4 4 4 5 5
94 90 96 93 89 91 93 89 89 89 94 99 94 91 86 74 73 77 86 76 74 59 48 36 23 16 10 7 5 4 5 6 4 4 3 4 4 4 4 4 4 4 4
96 95 89 70 70 70 72 78 86 97 97 89 83 79 76 74 80 78 68 67 54 44 33 27 16 10 7 5 4 5 5 4 3 4 4 3 4 4 4 4 4 4 4
74 76 84 94 93 85 84 89 94 88 76 70 74 78 75 80 75 70 60 45 36 27 20 12 8 6 4 4 5 4 4 3 3 4 3 3 3 3 3 3 3 3 3
92 96 96 93 95 96 94 83 78 67 68 79 78 75 81 71 63 50 39 29 23 18 11 7 5 4 4 4 4 3 3 3 3 3 3 3 3 3 3 3 3 3 3
84 83 93 99 98 90 79 75 70 85 90 82 78 80 66 59 47 39 29 22 17 10 6 4 4 4 4 4 3 3 3 3 3 3 3 3 3 3 3 3 3 3 3
84 77 76 85 89 83 82 93 94 88 84 79 74 66 58 42 32 25 19 14 9 6 4 4 5 5 3 3 3 3 3 3 3 3 3 3 3 3 3 3 3 3 3
78 74 81 84 80 87 90 91 91 86 80 72 62 52 42 34 27 17 12 8 6 5 4 4 4 3 3 3 3 3 3 2 2 2 3 3 3 3 3 3 3 3 3
90 88 85 83 87 88 86 85 74 67 62 55 45 40 36 28 19 14 8 7 6 5 5 4 3 3 3 3 3 3 2 2 2 2 2 3 3 3 3 3 3 3 4
90 93 90 81 81 78 70 66 61 56 50 43 38 31 21 16 10 7 7 6 5 6 4 3 3 3 3 2 2 2 2 2 2 2 2 2 3 3 3 3 3 3 4
68 71 78 77 72 66 61 60 55 45 41 37 27 19 13 8 6 5 5 5 5 4 3 3 3 2 2 2 2 2 2 2 2 2 2 2 3 3 3 3 3 3 4
66 76 72 68 63 61 60 48 40 36 30 21 16 11 7 6 5 5 5 4 3 3 3 3 2 2 2 2 2 2 2 2 2 2 3 3 3 3 3 3 3 3 4
66 67 62 60 57 50 43 38 32 23 16 13 8 6 5 5 4 4 4 3 3 3 3 2 2 2 2 2 2 2 2 2 2 2 2 3 3 3 3 3 3 3 4
63 58 55 49 42 38 33 26 18 14 9 6 5 5 4 4 4 3 3 3 2 2 2 2 2 2 2 2 2 2 2 2 2 2 2 2 3 3 3 3 3 3 4
51 45 42 37 34 28 20 13 9 7 6 5 4 4 4 3 3 2 2 2 2 2 2 2 2 2 2 2 2 2 2 2 2 2 2 2 2 3 3 3 3 3 4

GFSGL_250_rhum_057.txt.gz
RH
73 68 66 66 73 68 76 96 100 100 100 100 100 98 91 100 100 100 100 100 93 99 87 73 77 95 93 86 68 65 71 73 61 73 71 66 61 54 41 30 28 20 13
82 78 67 44 67 70 77 67 71 85 89 91 98 100 100 100 99 100 98 99 94 83 70 78 96 95 89 75 77 79 77 73 70 68 70 65 62 51 32 23 20 13 11
74 74 70 72 74 59 47 48 52 58 69 82 100 100 100 100 100 99 98 84 76 71 85 93 88 78 72 84 84 76 68 71 65 65 63 62 48 35 23 19 12 10 7
74 68 62 70 68 60 56 53 52 70 88 98 100 100 100 99 91 85 76 72 85 99 100 92 84 86 89 79 77 78 76 68 68 69 64 48 31 27 20 10 9 7 5
75 77 78 68 64 54 42 42 46 63 88 93 93 90 86 94 85 77 85 98 98 92 92 94 96 95 79 71 73 69 70 70 72 60 42 29 23 14 13 9 6 5 5
91 82 73 56 54 48 53 64 63 64 82 94 94 98 96 87 93 99 100 100 97 94 100 99 85 78 70 72 69 83 87 76 61 51 34 27 18 12 8 6 5 5 6
61 68 65 60 64 70 80 92 100 100 100 100 100 100 99 100 100 100 97 92 99 99 90 94 84 78 80 80 77 74 68 64 53 38 29 28 16 11 6 5 5 5 5
59 60 68 78 91 96 99 100 100 100 100 100 100 100 100 99 97 95 99 100 98 99 92 73 76 79 89 80 73 66 59 50 36 23 16 12 10 7 5 5 5 5 4
77 85 93 98 100 100 100 100 100 100 100 100 100 100 100 98 100 99 90 97 83 71 76 76 71 79 80 81 68 59 46 40 27 16 10 8 6 5 5 5 4 4 4
83 92 98 100 100 98 100 100 100 99 96 97 98 94 85 79 78 78 74 66 62 65 73 78 89 81 79 71 58 50 35 25 18 12 7 5 4 5 5 4 3 3 4
70 78 94 100 99 97 93 88 89 89 85 83 81 76 70 73 74 69 62 63 66 67 82 90 84 80 69 65 52 37 26 18 12 7 5 4 5 5 3 3 3 4 4
96 100 98 95 87 83 81 89 93 88 85 84 77 77 79 76 72 82 78 80 81 87 85 85 82 74 61 47 39 28 19 10 7 5 5 5 4 3 3 4 4 3 3
85 83 80 76 77 94 95 85 76 68 65 67 67 69 74 88 91 90 93 94 90 85 81 77 67 53 45 39 28 18 9 6 5 5 5 4 3 3 3 4 3 3 3
71 64 68 84 89 85 72 72 74 70 74 71 72 79 88 92 92 93 89 82 80 80 71 58 49 42 33 25 14 8 6 4 5 5 3 3 3 3 3 3 3 3 3
68 74 89 80 72 75 98 88 90 96 89 84 96 97 94 90 88 77 77 76 70 57 48 43 35 26 17 10 6 4 4 5 4 3 3 3 3 3 3 3 3 3 3
81 98 93 87 91 93 83 74 69 75 75 74 76 85 83 78 74 73 68 59 48 41 33 25 19 13 9 6 4 4 5 4 3 3 3 3 3 3 3 3 3 3 3
86 84 79 74 73 71 69 72 78 86 75 67 70 69 68 67 66 60 52 47 38 28 18 14 11 8 6 4 4 4 4 3 3 3 3 3 2 3 3 2 3 3 3
81 79 80 68 68 69 76 72 74 71 71 62 67 71 67 61 58 50 42 32 23 16 12 8 7 5 4 4 4 3 3 3 3 3 3 2 2 3 2 2 3 3 3
73 68 68 74 68 64 66 72 65 62 62 67 66 61 60 57 48 40 30 20 15 10 7 6 5 5 4 4 3 3 3 3 3 3 2 2 2 2 2 2 3 3 3
62 63 65 64 57 66 74 75 68 66 65 66 60 56 50 46 36 26 19 13 9 7 6 5 5 4 4 3 3 3 3 3 2 2 2 2 2 2 2 2 3 3 3
48 49 58 64 70 71 79 80 68 68 65 60 54 50 42 31 23 16 10 8 6 5 5 5 4 3 3 3 3 3 2 2 2 2 2 2 2 2 2 3 3 3 3
87 86 80 78 91 88 83 84 74 62 56 53 46 37 28 21 14 9 7 6 5 5 5 4 3 3 3 2 2 2 2 2 2 2 2 2 2 2 3 3 3 3 3
98 92 93 95 88 81 80 69 59 59 49 41 31 24 18 12 8 6 5 5 4 4 3 3 3 2 2 2 2 2 2 2 2 2 2 2 2 2 2 3 3 3 3
91 91 100 83 76 82 58 58 54 48 36 29 22 15 10 7 5 5 5 4 4 3 3 3 2 2 2 2 2 2 2 2 2 2 2 2 2 2 2 3 3 3 3
84 89 82 73 77 70 62 48 46 32 26 20 12 8 6 5 5 4 4 3 3 3 2 2 2 2 2 2 2 2 2 2 2 2 2 2 2 2 2 2 3 3 3
73 84 69 71 64 52 48 41 28 22 15 9 7 6 5 4 4 3 3 2 2 2 2 2 2 2 2 2 2 2 2 2 2 2 2 2 2 2 2 2 3 3 3

GFSGL_250_rhum_060.txt.gz
RH
57 59 65 63 57 70 100 100 100 99 89 82 72 89 100 100 100 100 100 100 99 100 100 100 100 98 90 86 88 92 81 67 54 74 76 75 63 58 61 58 55 52 40
59 76 99 100 96 77 95 80 74 66 65 77 75 82 78 89 97 100 97 100 92 100 100 97 88 87 92 97 96 84 74 69 67 68 73 62 60 63 63 63 61 41 31
89 100 98 83 98 88 75 72 69 58 62 70 66 57 54 55 60 69 81 96 94 100 98 86 96 100 100 90 74 74 72 73 68 68 57 57 59 66 61 51 39 24 19
63 67 77 80 78 68 66 61 63 61 52 45 44 38 37 44 53 62 77 86 90 94 97 96 95 94 77 72 71 69 64 66 67 55 54 57 64 66 52 36 22 14 10
72 75 82 87 74 65 48 45 45 43 44 47 48 55 69 81 89 98 100 100 100 100 100 92 75 74 76 75 71 67 66 64 68 69 79 70 63 52 47 26 18 10 8
56 76 57 47 42 51 52 43 40 51 71 79 84 86 86 85 85 90 90 89 85 81 79 81 80 75 69 62 68 76 74 81 91 89 71 69 65 55 33 21 13 8 6
40 41 46 50 49 46 52 63 74 73 73 80 82 82 87 91 94 88 83 84 83 78 73 70 67 68 79 82 85 89 98 100 92 75 65 61 42 35 22 13 8 6 5
47 52 52 47 49 53 60 62 62 68 83 91 92 93 87 83 84 82 77 72 67 68 69 76 85 92 90 86 90 98 97 90 79 68 52 38 30 21 14 8 6 5 5
39 39 40 43 49 55 58 72 82 86 91 96 89 96 89 76 75 75 71 69 70 77 82 86 87 95 97 97 88 85 74 74 68 54 43 31 18 12 8 6 5 5 5
80 65 57 53 56 60 76 84 90 98 91 83 81 75 71 80 82 74 71 72 74 82 96 100 97 91 95 92 79 72 69 60 49 42 32 18 10 8 6 4 5 5 3
80 86 89 94 100 97 92 84 74 75 77 68 70 84 93 80 68 70 72 74 74 76 84 89 93 90 88 86 78 63 52 43 35 23 14 10 7 5 5 5 5 3 4
67 77 75 76 77 74 68 72 71 83 79 76 78 80 74 70 77 70 64 70 71 74 82 86 84 84 80 68 56 50 38 25 16 12 8 6 5 4 5 4 3 3 3
73 64 62 67 68 70 73 72 80 88 93 86 86 77 65 65 70 69 73 74 76 80 81 80 79 70 59 51 42 31 22 14 10 7 6 4 4 4 3 3 3 4 3
86 83 73 70 78 77 74 78 96 91 80 85 84 70 62 63 67 75 83 84 84 83 76 73 64 56 44 32 24 17 11 8 6 5 5 5 4 3 3 4 4 4 4
82 82 81 81 85 78 91 86 78 78 79 74 69 65 66 73 81 80 77 68 71 76 72 57 49 36 28 21 15 10 8 6 4 4 5 4 3 3 3 3 3 3 3
96 100 93 78 98 97 99 92 81 68 72 68 64 70 72 85 72 69 72 72 71 69 56 42 30 23 16 12 9 8 6 5 4 4 4 3 3 3 3 3 3 2 3
100 100 100 99 94 100 100 85 83 70 67 62 68 71 77 79 68 71 78 65 58 52 40 31 22 13 10 8 6 6 5 4 4 3 3 3 3 3 3 3 2 2 2
94 95 90 87 100 96 89 81 66 58 53 57 66 70 76 81 88 91 74 80 58 39 31 21 12 9 7 6 6 5 4 3 3 3 3 3 3 3 2 2 2 2 2
99 96 98 97 86 79 70 64 48 42 45 58 68 69 86 98 99 88 75 76 53 36 22 15 10 7 6 6 5 4 3 3 3 3 2 2 2 2 2 2 2 2 2
93 100 89 83 78 70 55 51 56 69 86 77 79 90 90 87 77 67 56 53 32 24 14 10 7 6 5 4 4 3 3 3 3 2 2 2 2 2 2 2 2 2 2
91 76 83 78 74 66 66 70 100 88 92 85 90 90 94 78 66 57 49 37 24 14 9 7 6 5 4 3 3 3 2 2 2 2 2 2 2 2 2 2 2 2 2
89 86 84 79 74 81 74 100 100 96 93 93 82 84 80 66 47 46 32 23 15 9 7 6 5 4 3 3 2 2 2 2 2 2 2 2 2 2 2 2 2 2 2
86 89 91 85 97 100 100 100 100 99 83 77 85 76 60 49 39 28 20 13 9 6 5 4 4 3 3 2 2 2 2 2 2 2 2 2 2 2 2 2 2 2 2
81 83 96 100 100 100 100 100 89 79 85 76 75 52 43 34 26 18 12 8 6 5 4 3 3 2 2 2 2 2 2 2 2 2 2 2 2 2 2 2 2 2 2
100 100 100 100 99 96 89 84 86 89 81 64 52 39 27 21 13 10 7 5 4 3 3 3 2 2 2 2 2 2 2 2 2 2 2 2 2 2 2 2 2 2 2
100 100 96 87 84 84 77 86 86 68 49 39 28 20 12 9 7 5 4 3 3 3 2 2 2 2 2 2 2 2 2 2 2 2 2 2 2 2 2 2 2 2 2

GFSGL_250_rhum_063.txt.gz
RH
65 58 53 80 100 90 98 100 100 100 100 100 100 100 100 95 89 71 74 84 89 88 90 87 74 64 68 75 81 88 90 74 69 72 68 62 69 66 70 71 69 49 50
97 100 100 98 96 77 100 100 100 100 96 100 100 100 85 70 61 62 77 81 60 48 42 47 60 66 74 82 84 78 68 61 54 54 64 63 70 71 74 73 66 60 46
99 100 100 100 100 100 82 100 100 80 90 84 81 69 59 55 57 50 50 55 52 61 74 83 89 84 75 66 63 61 64 63 62 62 67 72 78 79 71 66 61 50 34
100 100 90 86 98 98 87 79 88 93 76 73 62 54 47 42 41 42 49 61 67 72 72 70 66 65 63 62 64 61 59 59 62 62 70 78 76 81 68 58 49 41 27
93 100 93 70 73 75 74 68 57 52 57 56 43 39 34 35 48 54 55 56 62 60 68 67 68 63 62 65 65 60 52 56 67 74 72 78 77 74 72 61 45 29 19
60 48 45 52 49 45 43 49 48 44 42 38 39 40 49 57 56 57 56 57 60 69 71 71 69 63 60 60 62 59 57 63 71 72 78 75 82 70 59 47 32 20 15
42 38 41 41 39 38 40 42 44 46 46 43 46 48 55 56 61 63 68 78 77 73 72 63 63 66 70 68 65 69 74 80 80 79 84 78 62 56 44 32 20 12 8
39 38 36 38 39 39 40 42 45 48 53 58 65 72 78 83 81 77 71 67 72 71 68 64 68 69 76 85 83 81 82 85 91 84 74 65 54 40 26 16 11 7 6
53 50 49 48 53 58 60 62 66 71 74 72 82 92 85 69 65 67 68 76 76 74 67 68 74 82 84 78 80 86 87 77 79 81 72 55 36 23 14 9 7 6 5
50 61 68 75 68 70 68 60 66 73 66 63 61 64 64 68 66 68 70 64 76 73 71 71 81 92 98 85 70 74 84 81 77 72 50 35 23 13 8 6 5 5 5
62 58 57 65 71 71 68 70 75 72 72 64 71 72 69 69 75 76 70 70 77 74 72 78 90 96 97 83 86 82 78 66 57 42 26 17 11 8 6 5 4 5 5
97 79 66 66 66 63 66 74 77 59 58 68 83 83 85 89 94 91 78 77 85 72 72 81 93 98 98 90 94 81 68 46 36 21 14 10 8 6 5 5 4 4 3
100 100 99 98 85 75 56 78 74 78 88 96 92 97 100 100 100 93 78 71 75 68 70 84 94 96 89 99 88 65 54 41 27 16 10 8 6 5 5 4 3 3 3
100 100 82 85 73 69 70 80 90 85 89 81 88 97 100 100 97 95 83 76 72 65 86 87 78 76 95 93 74 51 43 32 18 11 8 7 5 4 4 3 3 3 3
100 99 87 72 80 90 85 98 93 97 94 95 100 100 99 91 89 77 71 65 64 75 77 68 79 95 92 82 59 44 37 22 13 8 6 5 4 3 3 3 3 3 3
96 90 92 98 99 100 99 84 81 83 78 98 100 87 81 87 84 66 66 60 60 69 72 94 92 91 80 59 43 33 22 15 9 6 4 4 3 3 3 3 3 2 2
100 100 94 88 90 93 74 72 73 73 84 93 98 93 96 87 61 55 53 64 68 86 88 95 94 78 56 40 28 20 13 9 7 5 3 3 3 3 2 2 3 3 2
100 96 82 95 95 82 72 74 67 67 92 98 91 95 98 65 51 51 61 74 90 94 90 93 79 60 51 30 20 13 8 6 4 4 3 2 2 2 2 2 2 2 2
94 98 80 67 73 86 78 67 65 83 95 96 92 79 68 69 77 88 98 100 99 99 96 85 75 51 32 19 11 8 6 4 3 3 3 2 2 2 2 2 2 2 2
100 77 73 76 75 70 67 64 64 69 80 83 72 65 78 95 97 100 100 100 100 95 91 72 48 32 17 11 8 6 5 4 3 3 2 2 2 2 2 2 2 2 2
84 76 82 79 68 62 58 56 60 73 77 79 74 88 100 100 100 100 100 100 95 76 56 43 26 17 11 8 6 5 4 3 3 2 2 2 2 2 2 2 2 2 2
75 78 88 81 69 71 83 90 93 86 76 74 89 97 100 100 100 98 95 86 79 55 36 25 16 10 7 5 4 4 3 3 2 2 2 2 2 2 2 2 2 2 2
81 84 85 80 61 67 76 81 76 72 87 100 100 100 100 94 97 96 81 61 46 31 19 13 8 6 5 4 3 3 3 2 2 2 2 2 2 2 2 2 2 2 2
76 66 57 56 67 74 70 72 86 97 100 100 100 100 98 94 86 64 51 37 25 15 9 7 5 4 3 3 3 2 2 2 2 2 2 2 2 2 2 2 2 2 2
48 47 58 69 66 69 82 94 99 97 94 93 99 88 80 62 49 43 28 19 11 7 6 4 4 3 3 3 2 2 2 2 2 2 2 2 2 2 2 2 2 2 2
38 41 54 71 85 93 95 95 93 87 86 82 68 59 51 37 25 16 12 7 6 4 4 3 3 3 2 2 2 2 2 2 2 2 2 2 2 2 2 2 2 2 2